Wetterdaten: Montag, 09.12.2013
Datum Zeit Temp. Aussen +5cm Feuchte Auss Luftdruck Regen Sonnenschein Regendauer UV Solar Windben
09.12.2013 00:00 7,8 C 6,7 C 90 % 1025,4 hPa 0,0 l/m 0 min 0 min 0,0 UV-I 0 W/m 15,4 km/h (3 Bft)
09.12.2013 00:02 7,8 C 6,7 C 90 % 1025,5 hPa 0,0 l/m 0 min 0 min 0,0 UV-I 0 W/m 18,0 km/h (3 Bft)
09.12.2013 00:06 7,8 C 6,7 C 90 % 1025,5 hPa 0,0 l/m 0 min 0 min 0,0 UV-I 0 W/m 15,4 km/h (3 Bft)
09.12.2013 00:08 7,8 C 6,7 C 90 % 1025,5 hPa 0,0 l/m 0 min 0 min 0,0 UV-I 0 W/m 18,0 km/h (3 Bft)
09.12.2013 00:10 7,8 C 6,7 C 90 % 1025,6 hPa 0,0 l/m 0 min 0 min 0,0 UV-I 0 W/m 20,6 km/h (4 Bft)
09.12.2013 00:12 7,8 C 6,7 C 90 % 1025,4 hPa 0,0 l/m 0 min 0 min 0,0 UV-I 0 W/m 12,9 km/h (3 Bft)
09.12.2013 00:14 7,8 C 6,7 C 90 % 1025,5 hPa 0,0 l/m 0 min 0 min 0,0 UV-I 0 W/m 10,3 km/h (2 Bft)
09.12.2013 00:16 7,8 C 6,7 C 90 % 1025,5 hPa 0,0 l/m 0 min 0 min 0,0 UV-I 0 W/m 5,1 km/h (1 Bft)
09.12.2013 00:18 7,8 C 6,1 C 90 % 1025,5 hPa 0,0 l/m 0 min 0 min 0,0 UV-I 0 W/m 12,9 km/h (3 Bft)
09.12.2013 00:20 7,8 C 6,1 C 90 % 1025,5 hPa 0,0 l/m 0 min 0 min 0,0 UV-I 0 W/m 10,3 km/h (2 Bft)
09.12.2013 00:22 7,7 C 6,1 C 90 % 1025,5 hPa 0,0 l/m 0 min 0 min 0,0 UV-I 0 W/m 12,9 km/h (3 Bft)
09.12.2013 00:24 7,7 C 6,1 C 90 % 1025,5 hPa 0,0 l/m 0 min 0 min 0,0 UV-I 0 W/m 15,4 km/h (3 Bft)
09.12.2013 00:26 7,7 C 6,1 C 90 % 1025,6 hPa 0,0 l/m 0 min 0 min 0,0 UV-I 0 W/m 20,6 km/h (4 Bft)
09.12.2013 00:28 7,7 C 6,1 C 90 % 1025,6 hPa 0,0 l/m 0 min 0 min 0,0 UV-I 0 W/m 28,3 km/h (4 Bft)
09.12.2013 00:30 7,7 C 6,1 C 90 % 1025,5 hPa 0,0 l/m 0 min 0 min 0,0 UV-I 0 W/m 10,3 km/h (2 Bft)
09.12.2013 00:32 7,6 C 6,1 C 90 % 1025,5 hPa 0,0 l/m 0 min 0 min 0,0 UV-I 0 W/m 18,0 km/h (3 Bft)
09.12.2013 00:34 7,6 C 6,1 C 90 % 1025,5 hPa 0,0 l/m 0 min 0 min 0,0 UV-I 0 W/m 12,9 km/h (3 Bft)
09.12.2013 00:36 7,6 C 6,1 C 90 % 1025,5 hPa 0,0 l/m 0 min 0 min 0,0 UV-I 0 W/m 15,4 km/h (3 Bft)
09.12.2013 00:38 7,6 C 6,1 C 90 % 1025,5 hPa 0,0 l/m 0 min 0 min 0,0 UV-I 0 W/m 18,0 km/h (3 Bft)
09.12.2013 00:40 7,6 C 6,1 C 90 % 1025,5 hPa 0,0 l/m 0 min 0 min 0,0 UV-I 0 W/m 20,6 km/h (4 Bft)
09.12.2013 00:42 7,6 C 6,1 C 90 % 1025,5 hPa 0,0 l/m 0 min 0 min 0,0 UV-I 0 W/m 15,4 km/h (3 Bft)
09.12.2013 00:44 7,5 C 6,1 C 90 % 1025,4 hPa 0,0 l/m 0 min 0 min 0,0 UV-I 0 W/m 20,6 km/h (4 Bft)
09.12.2013 00:46 7,5 C 6,1 C 90 % 1025,4 hPa 0,0 l/m 0 min 0 min 0,0 UV-I 0 W/m 18,0 km/h (3 Bft)
09.12.2013 00:48 7,5 C 6,1 C 90 % 1025,4 hPa 0,0 l/m 0 min 0 min 0,0 UV-I 0 W/m 18,0 km/h (3 Bft)
09.12.2013 00:50 7,4 C 6,1 C 90 % 1025,5 hPa 0,0 l/m 0 min 0 min 0,0 UV-I 0 W/m 20,6 km/h (4 Bft)
09.12.2013 00:52 7,4 C 6,1 C 90 % 1025,5 hPa 0,0 l/m 0 min 0 min 0,0 UV-I 0 W/m 18,0 km/h (3 Bft)
09.12.2013 00:54 7,4 C 6,1 C 90 % 1025,5 hPa 0,0 l/m 0 min 0 min 0,0 UV-I 0 W/m 25,7 km/h (4 Bft)
09.12.2013 00:56 7,4 C 6,1 C 90 % 1025,5 hPa 0,0 l/m 0 min 0 min 0,0 UV-I 0 W/m 23,2 km/h (4 Bft)
09.12.2013 00:58 7,4 C 6,1 C 90 % 1025,5 hPa 0,0 l/m 0 min 0 min 0,0 UV-I 0 W/m 15,4 km/h (3 Bft)
09.12.2013 01:00 7,4 C 6,1 C 90 % 1025,6 hPa 0,0 l/m 0 min 0 min 0,0 UV-I 0 W/m 18,0 km/h (3 Bft)
09.12.2013 01:02 7,4 C 6,1 C 90 % 1025,6 hPa 0,0 l/m 0 min 0 min 0,0 UV-I 0 W/m 15,4 km/h (3 Bft)
09.12.2013 01:04 7,4 C 6,1 C 90 % 1025,6 hPa 0,0 l/m 0 min 0 min 0,0 UV-I 0 W/m 25,7 km/h (4 Bft)
09.12.2013 01:06 7,4 C 6,1 C 90 % 1025,6 hPa 0,0 l/m 0 min 0 min 0,0 UV-I 0 W/m 18,0 km/h (3 Bft)
09.12.2013 01:08 7,4 C 6,1 C 90 % 1025,7 hPa 0,0 l/m 0 min 0 min 0,0 UV-I 0 W/m 25,7 km/h (4 Bft)
09.12.2013 01:10 7,3 C 6,1 C 90 % 1025,5 hPa 0,0 l/m 0 min 0 min 0,0 UV-I 0 W/m 12,9 km/h (3 Bft)
09.12.2013 01:12 7,4 C 6,1 C 90 % 1025,5 hPa 0,0 l/m 0 min 0 min 0,0 UV-I 0 W/m 15,4 km/h (3 Bft)
09.12.2013 01:14 7,3 C 6,1 C 90 % 1025,6 hPa 0,0 l/m 0 min 0 min 0,0 UV-I 0 W/m 18,0 km/h (3 Bft)
09.12.2013 01:16 7,3 C 6,1 C 90 % 1025,6 hPa 0,0 l/m 0 min 0 min 0,0 UV-I 0 W/m 10,3 km/h (2 Bft)
09.12.2013 01:18 7,3 C 6,1 C 90 % 1025,6 hPa 0,0 l/m 0 min 0 min 0,0 UV-I 0 W/m 18,0 km/h (3 Bft)
09.12.2013 01:20 7,3 C 6,1 C 90 % 1025,5 hPa 0,0 l/m 0 min 0 min 0,0 UV-I 0 W/m 23,2 km/h (4 Bft)
09.12.2013 01:22 7,3 C 6,1 C 91 % 1025,4 hPa 0,0 l/m 0 min 0 min 0,0 UV-I 0 W/m 30,9 km/h (5 Bft)
09.12.2013 01:24 7,3 C 6,1 C 91 % 1025,5 hPa 0,0 l/m 0 min 0 min 0,0 UV-I 0 W/m 10,3 km/h (2 Bft)
09.12.2013 01:26 7,3 C 6,1 C 91 % 1025,5 hPa 0,0 l/m 0 min 0 min 0,0 UV-I 0 W/m 25,7 km/h (4 Bft)
09.12.2013 01:28 7,3 C 6,1 C 91 % 1025,5 hPa 0,0 l/m 0 min 0 min 0,0 UV-I 0 W/m 18,0 km/h (3 Bft)
09.12.2013 01:30 7,3 C 6,1 C 91 % 1025,5 hPa 0,0 l/m 0 min 0 min 0,0 UV-I 0 W/m 15,4 km/h (3 Bft)
09.12.2013 01:32 7,3 C 6,1 C 91 % 1025,5 hPa 0,0 l/m 0 min 0 min 0,0 UV-I 0 W/m 18,0 km/h (3 Bft)
09.12.2013 01:34 7,3 C 6,1 C 91 % 1025,5 hPa 0,0 l/m 0 min 0 min 0,0 UV-I 0 W/m 18,0 km/h (3 Bft)
09.12.2013 01:36 7,3 C 6,1 C 91 % 1025,5 hPa 0,0 l/m 0 min 0 min 0,0 UV-I 0 W/m 12,9 km/h (3 Bft)
09.12.2013 01:38 7,3 C 6,1 C 91 % 1025,6 hPa 0,0 l/m 0 min 0 min 0,0 UV-I 0 W/m 20,6 km/h (4 Bft)
09.12.2013 01:40 7,3 C 6,1 C 91 % 1025,6 hPa 0,0 l/m 0 min 0 min 0,0 UV-I 0 W/m 10,3 km/h (2 Bft)
09.12.2013 01:42 7,3 C 6,1 C 91 % 1025,4 hPa 0,0 l/m 0 min 0 min 0,0 UV-I 0 W/m 12,9 km/h (3 Bft)
09.12.2013 01:44 7,3 C 6,1 C 91 % 1025,4 hPa 0,0 l/m 0 min 0 min 0,0 UV-I 0 W/m 18,0 km/h (3 Bft)
09.12.2013 01:46 7,3 C 5,6 C 91 % 1025,4 hPa 0,0 l/m 0 min 0 min 0,0 UV-I 0 W/m 25,7 km/h (4 Bft)
09.12.2013 01:48 7,3 C 5,6 C 91 % 1025,4 hPa 0,0 l/m 0 min 0 min 0,0 UV-I 0 W/m 10,3 km/h (2 Bft)
09.12.2013 01:50 7,3 C 5,6 C 91 % 1025,4 hPa 0,0 l/m 0 min 0 min 0,0 UV-I 0 W/m 12,9 km/h (3 Bft)
09.12.2013 01:52 7,2 C 5,6 C 91 % 1025,4 hPa 0,0 l/m 0 min 0 min 0,0 UV-I 0 W/m 18,0 km/h (3 Bft)
09.12.2013 01:54 7,2 C 5,6 C 91 % 1025,3 hPa 0,0 l/m 0 min 0 min 0,0 UV-I 0 W/m 20,6 km/h (4 Bft)
09.12.2013 01:56 7,2 C 5,6 C 91 % 1025,4 hPa 0,0 l/m 0 min 0 min 0,0 UV-I 0 W/m 20,6 km/h (4 Bft)
09.12.2013 01:58 7,2 C 5,6 C 91 % 1025,3 hPa 0,0 l/m 0 min 0 min 0,0 UV-I 0 W/m 15,4 km/h (3 Bft)
09.12.2013 02:00 7,2 C 5,6 C 90 % 1025,4 hPa 0,0 l/m 0 min 0 min 0,0 UV-I 0 W/m 23,2 km/h (4 Bft)
09.12.2013 02:02 7,2 C 5,6 C 90 % 1025,3 hPa 0,0 l/m 0 min 0 min 0,0 UV-I 0 W/m 18,0 km/h (3 Bft)
09.12.2013 02:04 7,2 C 5,6 C 90 % 1025,3 hPa 0,0 l/m 0 min 0 min 0,0 UV-I 0 W/m 18,0 km/h (3 Bft)
09.12.2013 02:06 7,1 C 5,6 C 90 % 1025,3 hPa 0,0 l/m 0 min 0 min 0,0 UV-I 0 W/m 25,7 km/h (4 Bft)
09.12.2013 02:08 7,1 C 5,6 C 90 % 1025,3 hPa 0,0 l/m 0 min 0 min 0,0 UV-I 0 W/m 7,7 km/h (2 Bft)
09.12.2013 02:10 7,1 C 5,6 C 90 % 1025,3 hPa 0,0 l/m 0 min 0 min 0,0 UV-I 0 W/m 15,4 km/h (3 Bft)
09.12.2013 02:12 7,0 C 5,6 C 90 % 1025,4 hPa 0,0 l/m 0 min 0 min 0,0 UV-I 0 W/m 15,4 km/h (3 Bft)
09.12.2013 02:14 7,0 C 5,6 C 90 % 1025,4 hPa 0,0 l/m 0 min 0 min 0,0 UV-I 0 W/m 23,2 km/h (4 Bft)
09.12.2013 02:16 6,9 C 5,6 C 90 % 1025,4 hPa 0,0 l/m 0 min 0 min 0,0 UV-I 0 W/m 12,9 km/h (3 Bft)
09.12.2013 02:18 6,9 C 5,6 C 91 % 1025,5 hPa 0,0 l/m 0 min 0 min 0,0 UV-I 0 W/m 18,0 km/h (3 Bft)
09.12.2013 02:20 6,9 C 5,6 C 91 % 1025,6 hPa 0,0 l/m 0 min 0 min 0,0 UV-I 0 W/m 18,0 km/h (3 Bft)
09.12.2013 02:22 6,9 C 5,6 C 91 % 1025,6 hPa 0,0 l/m 0 min 0 min 0,0 UV-I 0 W/m 12,9 km/h (3 Bft)
09.12.2013 02:24 6,9 C 5,6 C 91 % 1025,5 hPa 0,0 l/m 0 min 0 min 0,0 UV-I 0 W/m 18,0 km/h (3 Bft)
09.12.2013 02:26 6,9 C 5,6 C 91 % 1025,5 hPa 0,0 l/m 0 min 0 min 0,0 UV-I 0 W/m 12,9 km/h (3 Bft)
09.12.2013 02:28 6,9 C 5,6 C 91 % 1025,5 hPa 0,0 l/m 0 min 0 min 0,0 UV-I 0 W/m 18,0 km/h (3 Bft)
09.12.2013 02:30 6,9 C 5,6 C 90 % 1025,5 hPa 0,0 l/m 0 min 0 min 0,0 UV-I 0 W/m 23,2 km/h (4 Bft)
09.12.2013 02:32 6,9 C 5,6 C 90 % 1025,5 hPa 0,0 l/m 0 min 0 min 0,0 UV-I 0 W/m 15,4 km/h (3 Bft)
09.12.2013 02:34 6,8 C 5,6 C 90 % 1025,5 hPa 0,0 l/m 0 min 0 min 0,0 UV-I 0 W/m 18,0 km/h (3 Bft)
09.12.2013 02:36 6,8 C 5,6 C 90 % 1025,5 hPa 0,0 l/m 0 min 0 min 0,0 UV-I 0 W/m 23,2 km/h (4 Bft)
09.12.2013 02:38 6,8 C 5,6 C 90 % 1025,6 hPa 0,0 l/m 0 min 0 min 0,0 UV-I 0 W/m 12,9 km/h (3 Bft)
09.12.2013 02:40 6,8 C 5,6 C 90 % 1025,5 hPa 0,0 l/m 0 min 0 min 0,0 UV-I 0 W/m 7,7 km/h (2 Bft)
09.12.2013 02:42 6,8 C 5,6 C 90 % 1025,5 hPa 0,0 l/m 0 min 0 min 0,0 UV-I 0 W/m 15,4 km/h (3 Bft)
09.12.2013 02:44 6,8 C 5,6 C 90 % 1025,5 hPa 0,0 l/m 0 min 0 min 0,0 UV-I 0 W/m 15,4 km/h (3 Bft)
09.12.2013 02:46 6,8 C 5,6 C 90 % 1025,5 hPa 0,0 l/m 0 min 0 min 0,0 UV-I 0 W/m 10,3 km/h (2 Bft)
09.12.2013 02:48 6,7 C 5,6 C 90 % 1025,5 hPa 0,0 l/m 0 min 0 min 0,0 UV-I 0 W/m 15,4 km/h (3 Bft)
09.12.2013 02:50 6,7 C 5,6 C 90 % 1025,6 hPa 0,0 l/m 0 min 0 min 0,0 UV-I 0 W/m 10,3 km/h (2 Bft)
09.12.2013 02:52 6,7 C 5,6 C 90 % 1025,7 hPa 0,0 l/m 0 min 0 min 0,0 UV-I 0 W/m 10,3 km/h (2 Bft)
09.12.2013 02:54 6,7 C 5,6 C 90 % 1025,6 hPa 0,0 l/m 0 min 0 min 0,0 UV-I 0 W/m 18,0 km/h (3 Bft)
09.12.2013 02:56 6,7 C 5,6 C 90 % 1025,6 hPa 0,0 l/m 0 min 0 min 0,0 UV-I 0 W/m 15,4 km/h (3 Bft)
09.12.2013 02:58 6,7 C 5,6 C 90 % 1025,6 hPa 0,0 l/m 0 min 0 min 0,0 UV-I 0 W/m 25,7 km/h (4 Bft)
09.12.2013 03:00 6,7 C 5,6 C 90 % 1025,7 hPa 0,0 l/m 0 min 0 min 0,0 UV-I 0 W/m 23,2 km/h (4 Bft)
09.12.2013 03:02 6,7 C 5,6 C 90 % 1025,6 hPa 0,0 l/m 0 min 0 min 0,0 UV-I 0 W/m 12,9 km/h (3 Bft)
09.12.2013 03:04 6,7 C 5,6 C 90 % 1025,6 hPa 0,0 l/m 0 min 0 min 0,0 UV-I 0 W/m 18,0 km/h (3 Bft)
09.12.2013 03:06 6,7 C 5,6 C 90 % 1025,6 hPa 0,0 l/m 0 min 0 min 0,0 UV-I 0 W/m 15,4 km/h (3 Bft)
09.12.2013 03:08 6,8 C 5,6 C 90 % 1025,6 hPa 0,0 l/m 0 min 0 min 0,0 UV-I 0 W/m 12,9 km/h (3 Bft)
09.12.2013 03:10 6,8 C 5,6 C 90 % 1025,5 hPa 0,0 l/m 0 min 0 min 0,0 UV-I 0 W/m 10,3 km/h (2 Bft)
09.12.2013 03:12 6,8 C 5,6 C 90 % 1025,6 hPa 0,0 l/m 0 min 0 min 0,0 UV-I 0 W/m 15,4 km/h (3 Bft)
09.12.2013 03:14 6,8 C 5,6 C 90 % 1025,6 hPa 0,0 l/m 0 min 0 min 0,0 UV-I 0 W/m 20,6 km/h (4 Bft)
09.12.2013 03:16 6,8 C 5,6 C 90 % 1025,5 hPa 0,0 l/m 0 min 0 min 0,0 UV-I 0 W/m 12,9 km/h (3 Bft)
09.12.2013 03:18 6,8 C 5,6 C 90 % 1025,5 hPa 0,0 l/m 0 min 0 min 0,0 UV-I 0 W/m 18,0 km/h (3 Bft)
09.12.2013 03:20 6,8 C 5,6 C 90 % 1025,4 hPa 0,0 l/m 0 min 0 min 0,0 UV-I 0 W/m 12,9 km/h (3 Bft)
09.12.2013 03:22 6,8 C 5,6 C 90 % 1025,5 hPa 0,0 l/m 0 min 0 min 0,0 UV-I 0 W/m 18,0 km/h (3 Bft)
09.12.2013 03:24 6,8 C 5,6 C 90 % 1025,3 hPa 0,0 l/m 0 min 0 min 0,0 UV-I 0 W/m 7,7 km/h (2 Bft)
09.12.2013 03:26 6,8 C 5,6 C 90 % 1025,4 hPa 0,0 l/m 0 min 0 min 0,0 UV-I 0 W/m 15,4 km/h (3 Bft)
09.12.2013 03:28 6,8 C 5,6 C 90 % 1025,4 hPa 0,0 l/m 0 min 0 min 0,0 UV-I 0 W/m 18,0 km/h (3 Bft)
09.12.2013 03:30 6,8 C 5,6 C 90 % 1025,4 hPa 0,0 l/m 0 min 0 min 0,0 UV-I 0 W/m 18,0 km/h (3 Bft)
09.12.2013 03:32 6,8 C 5,6 C 90 % 1025,4 hPa 0,0 l/m 0 min 0 min 0,0 UV-I 0 W/m 7,7 km/h (2 Bft)
09.12.2013 03:34 6,8 C 5,6 C 90 % 1025,4 hPa 0,0 l/m 0 min 0 min 0,0 UV-I 0 W/m 18,0 km/h (3 Bft)
09.12.2013 03:36 6,8 C 5,6 C 90 % 1025,4 hPa 0,0 l/m 0 min 0 min 0,0 UV-I 0 W/m 18,0 km/h (3 Bft)
09.12.2013 03:38 6,8 C 5,6 C 90 % 1025,5 hPa 0,0 l/m 0 min 0 min 0,0 UV-I 0 W/m 20,6 km/h (4 Bft)
09.12.2013 03:40 6,8 C 5,6 C 90 % 1025,3 hPa 0,0 l/m 0 min 0 min 0,0 UV-I 0 W/m 15,4 km/h (3 Bft)
09.12.2013 03:42 6,8 C 5,6 C 90 % 1025,4 hPa 0,0 l/m 0 min 0 min 0,0 UV-I 0 W/m 12,9 km/h (3 Bft)
09.12.2013 03:44 6,8 C 5,6 C 90 % 1025,3 hPa 0,0 l/m 0 min 0 min 0,0 UV-I 0 W/m 12,9 km/h (3 Bft)
09.12.2013 03:46 6,8 C 5,0 C 90 % 1025,4 hPa 0,0 l/m 0 min 0 min 0,0 UV-I 0 W/m 10,3 km/h (2 Bft)
09.12.2013 03:48 6,8 C 5,0 C 90 % 1025,3 hPa 0,0 l/m 0 min 0 min 0,0 UV-I 0 W/m 15,4 km/h (3 Bft)
09.12.2013 03:50 6,7 C 5,0 C 90 % 1025,3 hPa 0,0 l/m 0 min 0 min 0,0 UV-I 0 W/m 15,4 km/h (3 Bft)
09.12.2013 03:52 6,7 C 5,0 C 90 % 1025,3 hPa 0,0 l/m 0 min 0 min 0,0 UV-I 0 W/m 12,9 km/h (3 Bft)
09.12.2013 03:54 6,7 C 5,0 C 90 % 1025,2 hPa 0,0 l/m 0 min 0 min 0,0 UV-I 0 W/m 15,4 km/h (3 Bft)
09.12.2013 03:56 6,7 C 5,0 C 90 % 1025,2 hPa 0,0 l/m 0 min 0 min 0,0 UV-I 0 W/m 10,3 km/h (2 Bft)
09.12.2013 03:58 6,7 C 5,0 C 90 % 1025,3 hPa 0,0 l/m 0 min 0 min 0,0 UV-I 0 W/m 18,0 km/h (3 Bft)
09.12.2013 04:00 6,7 C 5,0 C 90 % 1025,2 hPa 0,0 l/m 0 min 0 min 0,0 UV-I 0 W/m 18,0 km/h (3 Bft)
09.12.2013 04:02 6,7 C 5,0 C 90 % 1025,3 hPa 0,0 l/m 0 min 0 min 0,0 UV-I 0 W/m 25,7 km/h (4 Bft)
09.12.2013 04:04 6,7 C 5,0 C 90 % 1025,4 hPa 0,0 l/m 0 min 0 min 0,0 UV-I 0 W/m 25,7 km/h (4 Bft)
09.12.2013 04:06 6,7 C 5,0 C 90 % 1025,2 hPa 0,0 l/m 0 min 0 min 0,0 UV-I 0 W/m 12,9 km/h (3 Bft)
09.12.2013 04:08 6,7 C 5,0 C 90 % 1025,2 hPa 0,0 l/m 0 min 0 min 0,0 UV-I 0 W/m 15,4 km/h (3 Bft)
09.12.2013 04:10 6,6 C 5,0 C 90 % 1025,1 hPa 0,0 l/m 0 min 0 min 0,0 UV-I 0 W/m 20,6 km/h (4 Bft)
09.12.2013 04:12 6,6 C 5,0 C 90 % 1025,1 hPa 0,0 l/m 0 min 0 min 0,0 UV-I 0 W/m 12,9 km/h (3 Bft)
09.12.2013 04:14 6,6 C 5,0 C 90 % 1025,2 hPa 0,0 l/m 0 min 0 min 0,0 UV-I 0 W/m 10,3 km/h (2 Bft)
09.12.2013 04:16 6,7 C 5,0 C 90 % 1025,3 hPa 0,0 l/m 0 min 0 min 0,0 UV-I 0 W/m 15,4 km/h (3 Bft)
09.12.2013 04:18 6,7 C 5,6 C 90 % 1025,4 hPa 0,0 l/m 0 min 0 min 0,0 UV-I 0 W/m 10,3 km/h (2 Bft)
09.12.2013 04:20 6,7 C 5,6 C 90 % 1025,4 hPa 0,0 l/m 0 min 0 min 0,0 UV-I 0 W/m 10,3 km/h (2 Bft)
09.12.2013 04:22 6,7 C 5,6 C 90 % 1025,2 hPa 0,0 l/m 0 min 0 min 0,0 UV-I 0 W/m 7,7 km/h (2 Bft)
09.12.2013 04:24 6,7 C 5,6 C 90 % 1025,3 hPa 0,0 l/m 0 min 0 min 0,0 UV-I 0 W/m 18,0 km/h (3 Bft)
09.12.2013 04:26 6,7 C 5,0 C 90 % 1025,2 hPa 0,0 l/m 0 min 0 min 0,0 UV-I 0 W/m 10,3 km/h (2 Bft)
09.12.2013 04:28 6,7 C 5,0 C 90 % 1025,1 hPa 0,0 l/m 0 min 0 min 0,0 UV-I 0 W/m 15,4 km/h (3 Bft)
09.12.2013 04:30 6,7 C 5,0 C 90 % 1025,0 hPa 0,0 l/m 0 min 0 min 0,0 UV-I 0 W/m 23,2 km/h (4 Bft)
09.12.2013 04:32 6,7 C 5,0 C 90 % 1024,8 hPa 0,0 l/m 0 min 0 min 0,0 UV-I 0 W/m 15,4 km/h (3 Bft)
09.12.2013 04:34 6,7 C 5,0 C 90 % 1024,8 hPa 0,0 l/m 0 min 0 min 0,0 UV-I 0 W/m 18,0 km/h (3 Bft)
09.12.2013 04:36 6,7 C 5,0 C 90 % 1024,9 hPa 0,0 l/m 0 min 0 min 0,0 UV-I 0 W/m 18,0 km/h (3 Bft)
09.12.2013 04:38 6,7 C 5,0 C 90 % 1024,9 hPa 0,0 l/m 0 min 0 min 0,0 UV-I 0 W/m 15,4 km/h (3 Bft)
09.12.2013 04:40 6,7 C 5,6 C 90 % 1024,7 hPa 0,0 l/m 0 min 0 min 0,0 UV-I 0 W/m 18,0 km/h (3 Bft)
09.12.2013 04:42 6,7 C 5,6 C 90 % 1024,7 hPa 0,0 l/m 0 min 0 min 0,0 UV-I 0 W/m 18,0 km/h (3 Bft)
09.12.2013 04:44 6,7 C 5,6 C 90 % 1025,0 hPa 0,0 l/m 0 min 0 min 0,0 UV-I 0 W/m 12,9 km/h (3 Bft)
09.12.2013 04:46 6,7 C 5,6 C 90 % 1024,8 hPa 0,0 l/m 0 min 0 min 0,0 UV-I 0 W/m 20,6 km/h (4 Bft)
09.12.2013 04:48 6,7 C 5,6 C 90 % 1025,1 hPa 0,0 l/m 0 min 0 min 0,0 UV-I 0 W/m 18,0 km/h (3 Bft)
09.12.2013 04:50 6,7 C 5,6 C 90 % 1025,2 hPa 0,0 l/m 0 min 0 min 0,0 UV-I 0 W/m 12,9 km/h (3 Bft)
09.12.2013 04:52 6,7 C 5,6 C 90 % 1025,3 hPa 0,0 l/m 0 min 0 min 0,0 UV-I 0 W/m 18,0 km/h (3 Bft)
09.12.2013 04:54 6,7 C 5,6 C 90 % 1025,1 hPa 0,0 l/m 0 min 0 min 0,0 UV-I 0 W/m 10,3 km/h (2 Bft)
09.12.2013 04:56 6,7 C 5,0 C 90 % 1025,1 hPa 0,0 l/m 0 min 0 min 0,0 UV-I 0 W/m 12,9 km/h (3 Bft)
09.12.2013 04:58 6,7 C 5,0 C 90 % 1025,1 hPa 0,0 l/m 0 min 0 min 0,0 UV-I 0 W/m 7,7 km/h (2 Bft)
09.12.2013 05:00 6,7 C 5,0 C 90 % 1025,2 hPa 0,0 l/m 0 min 0 min 0,0 UV-I 0 W/m 15,4 km/h (3 Bft)
09.12.2013 05:02 6,7 C 5,0 C 90 % 1025,3 hPa 0,0 l/m 0 min 0 min 0,0 UV-I 0 W/m 18,0 km/h (3 Bft)
09.12.2013 05:04 6,7 C 5,0 C 90 % 1025,3 hPa 0,0 l/m 0 min 0 min 0,0 UV-I 0 W/m 18,0 km/h (3 Bft)
09.12.2013 05:06 6,7 C 5,0 C 90 % 1025,3 hPa 0,0 l/m 0 min 0 min 0,0 UV-I 0 W/m 12,9 km/h (3 Bft)
09.12.2013 05:08 6,7 C 5,0 C 90 % 1025,3 hPa 0,0 l/m 0 min 0 min 0,0 UV-I 0 W/m 10,3 km/h (2 Bft)
09.12.2013 05:10 6,7 C 5,0 C 90 % 1025,4 hPa 0,0 l/m 0 min 0 min 0,0 UV-I 0 W/m 7,7 km/h (2 Bft)
09.12.2013 05:12 6,7 C 5,0 C 90 % 1025,3 hPa 0,0 l/m 0 min 0 min 0,0 UV-I 0 W/m 10,3 km/h (2 Bft)
09.12.2013 05:14 6,7 C 5,0 C 90 % 1025,3 hPa 0,0 l/m 0 min 0 min 0,0 UV-I 0 W/m 12,9 km/h (3 Bft)
09.12.2013 05:16 6,7 C 5,0 C 90 % 1025,3 hPa 0,0 l/m 0 min 0 min 0,0 UV-I 0 W/m 23,2 km/h (4 Bft)
09.12.2013 05:18 6,7 C 5,0 C 90 % 1025,3 hPa 0,0 l/m 0 min 0 min 0,0 UV-I 0 W/m 7,7 km/h (2 Bft)
09.12.2013 05:20 6,7 C 5,0 C 90 % 1025,2 hPa 0,0 l/m 0 min 0 min 0,0 UV-I 0 W/m 15,4 km/h (3 Bft)
09.12.2013 05:22 6,7 C 5,0 C 90 % 1025,1 hPa 0,0 l/m 0 min 0 min 0,0 UV-I 0 W/m 12,9 km/h (3 Bft)
09.12.2013 05:24 6,7 C 5,0 C 90 % 1025,3 hPa 0,0 l/m 0 min 0 min 0,0 UV-I 0 W/m 23,2 km/h (4 Bft)
09.12.2013 05:26 6,7 C 5,0 C 90 % 1025,3 hPa 0,0 l/m 0 min 0 min 0,0 UV-I 0 W/m 18,0 km/h (3 Bft)
09.12.2013 05:28 6,7 C 5,0 C 90 % 1025,2 hPa 0,0 l/m 0 min 0 min 0,0 UV-I 0 W/m 10,3 km/h (2 Bft)
09.12.2013 05:30 6,7 C 5,0 C 90 % 1025,3 hPa 0,0 l/m 0 min 0 min 0,0 UV-I 0 W/m 18,0 km/h (3 Bft)
09.12.2013 05:32 6,7 C 5,0 C 90 % 1025,3 hPa 0,0 l/m 0 min 0 min 0,0 UV-I 0 W/m 10,3 km/h (2 Bft)
09.12.2013 05:34 6,7 C 5,0 C 90 % 1025,3 hPa 0,0 l/m 0 min 0 min 0,0 UV-I 0 W/m 10,3 km/h (2 Bft)
09.12.2013 05:36 6,7 C 5,0 C 90 % 1025,3 hPa 0,0 l/m 0 min 0 min 0,0 UV-I 0 W/m 10,3 km/h (2 Bft)
09.12.2013 05:38 6,7 C 5,0 C 90 % 1025,1 hPa 0,0 l/m 0 min 0 min 0,0 UV-I 0 W/m 10,3 km/h (2 Bft)
09.12.2013 05:40 6,7 C 5,0 C 90 % 1025,4 hPa 0,0 l/m 0 min 0 min 0,0 UV-I 0 W/m 12,9 km/h (3 Bft)
09.12.2013 05:42 6,7 C 5,0 C 90 % 1025,4 hPa 0,0 l/m 0 min 0 min 0,0 UV-I 0 W/m 12,9 km/h (3 Bft)
09.12.2013 05:44 6,7 C 5,0 C 90 % 1025,3 hPa 0,0 l/m 0 min 0 min 0,0 UV-I 0 W/m 7,7 km/h (2 Bft)
09.12.2013 05:46 6,7 C 5,0 C 90 % 1025,3 hPa 0,0 l/m 0 min 0 min 0,0 UV-I 0 W/m 15,4 km/h (3 Bft)
09.12.2013 05:48 6,7 C 5,0 C 90 % 1025,3 hPa 0,0 l/m 0 min 0 min 0,0 UV-I 0 W/m 10,3 km/h (2 Bft)
09.12.2013 05:50 6,7 C 5,6 C 90 % 1025,4 hPa 0,0 l/m 0 min 0 min 0,0 UV-I 0 W/m 12,9 km/h (3 Bft)
09.12.2013 05:52 6,7 C 5,6 C 90 % 1025,4 hPa 0,0 l/m 0 min 0 min 0,0 UV-I 0 W/m 7,7 km/h (2 Bft)
09.12.2013 05:54 6,7 C 5,6 C 90 % 1025,3 hPa 0,0 l/m 0 min 0 min 0,0 UV-I 0 W/m 7,7 km/h (2 Bft)
09.12.2013 05:56 6,7 C 5,6 C 90 % 1025,4 hPa 0,0 l/m 0 min 0 min 0,0 UV-I 0 W/m 25,7 km/h (4 Bft)
09.12.2013 05:58 6,7 C 5,6 C 90 % 1025,4 hPa 0,0 l/m 0 min 0 min 0,0 UV-I 0 W/m 7,7 km/h (2 Bft)
09.12.2013 06:00 6,7 C 5,6 C 90 % 1025,4 hPa 0,0 l/m 0 min 0 min 0,0 UV-I 0 W/m 15,4 km/h (3 Bft)
09.12.2013 06:02 6,7 C 5,6 C 90 % 1025,5 hPa 0,0 l/m 0 min 0 min 0,0 UV-I 0 W/m 0,0 km/h (0 Bft)
09.12.2013 06:04 6,8 C 5,6 C 90 % 1025,5 hPa 0,0 l/m 0 min 0 min 0,0 UV-I 0 W/m 15,4 km/h (3 Bft)
09.12.2013 06:06 6,8 C 5,6 C 90 % 1025,6 hPa 0,0 l/m 0 min 0 min 0,0 UV-I 0 W/m 12,9 km/h (3 Bft)
09.12.2013 06:08 6,8 C 5,6 C 90 % 1025,6 hPa 0,0 l/m 0 min 0 min 0,0 UV-I 0 W/m 18,0 km/h (3 Bft)
09.12.2013 06:10 6,8 C 5,6 C 90 % 1025,7 hPa 0,0 l/m 0 min 0 min 0,0 UV-I 0 W/m 10,3 km/h (2 Bft)
09.12.2013 06:12 6,8 C 5,6 C 90 % 1025,8 hPa 0,0 l/m 0 min 0 min 0,0 UV-I 0 W/m 5,1 km/h (1 Bft)
09.12.2013 06:14 6,8 C 5,6 C 90 % 1025,8 hPa 0,0 l/m 0 min 0 min 0,0 UV-I 0 W/m 18,0 km/h (3 Bft)
09.12.2013 06:16 6,8 C 5,6 C 90 % 1025,8 hPa 0,0 l/m 0 min 0 min 0,0 UV-I 0 W/m 10,3 km/h (2 Bft)
09.12.2013 06:18 6,9 C 5,6 C 90 % 1025,8 hPa 0,0 l/m 0 min 0 min 0,0 UV-I 0 W/m 2,6 km/h (1 Bft)
09.12.2013 06:20 6,9 C 5,6 C 90 % 1025,9 hPa 0,0 l/m 0 min 0 min 0,0 UV-I 0 W/m 18,0 km/h (3 Bft)
09.12.2013 06:22 6,9 C 5,6 C 90 % 1025,8 hPa 0,0 l/m 0 min 0 min 0,0 UV-I 0 W/m 5,1 km/h (1 Bft)
09.12.2013 06:24 6,9 C 5,6 C 90 % 1025,9 hPa 0,0 l/m 0 min 0 min 0,0 UV-I 0 W/m 18,0 km/h (3 Bft)
09.12.2013 06:26 6,9 C 5,6 C 90 % 1025,8 hPa 0,0 l/m 0 min 0 min 0,0 UV-I 0 W/m 18,0 km/h (3 Bft)
09.12.2013 06:28 7,0 C 5,6 C 90 % 1025,9 hPa 0,0 l/m 0 min 0 min 0,0 UV-I 0 W/m 10,3 km/h (2 Bft)
09.12.2013 06:30 7,0 C 5,6 C 90 % 1025,9 hPa 0,0 l/m 0 min 0 min 0,0 UV-I 0 W/m 15,4 km/h (3 Bft)
09.12.2013 06:32 7,0 C 5,6 C 90 % 1025,9 hPa 0,0 l/m 0 min 0 min 0,0 UV-I 0 W/m 18,0 km/h (3 Bft)
09.12.2013 06:34 7,1 C 6,1 C 90 % 1025,9 hPa 0,0 l/m 0 min 0 min 0,0 UV-I 0 W/m 15,4 km/h (3 Bft)
09.12.2013 06:36 7,1 C 6,1 C 90 % 1025,9 hPa 0,0 l/m 0 min 0 min 0,0 UV-I 0 W/m 18,0 km/h (3 Bft)
09.12.2013 06:38 7,1 C 6,1 C 90 % 1025,8 hPa 0,0 l/m 0 min 0 min 0,0 UV-I 0 W/m 10,3 km/h (2 Bft)
09.12.2013 06:40 7,1 C 6,1 C 90 % 1025,9 hPa 0,0 l/m 0 min 0 min 0,0 UV-I 0 W/m 15,4 km/h (3 Bft)
09.12.2013 06:42 7,1 C 6,1 C 90 % 1025,8 hPa 0,0 l/m 0 min 0 min 0,0 UV-I 0 W/m 10,3 km/h (2 Bft)
09.12.2013 06:44 7,2 C 6,1 C 90 % 1025,9 hPa 0,0 l/m 0 min 0 min 0,0 UV-I 0 W/m 10,3 km/h (2 Bft)
09.12.2013 06:46 7,2 C 6,1 C 90 % 1025,9 hPa 0,0 l/m 0 min 0 min 0,0 UV-I 0 W/m 15,4 km/h (3 Bft)
09.12.2013 06:48 7,2 C 6,1 C 90 % 1025,9 hPa 0,0 l/m 0 min 0 min 0,0 UV-I 0 W/m 18,0 km/h (3 Bft)
09.12.2013 06:50 7,2 C 6,1 C 90 % 1026,0 hPa 0,0 l/m 0 min 0 min 0,0 UV-I 0 W/m 12,9 km/h (3 Bft)
09.12.2013 06:52 7,2 C 6,1 C 90 % 1025,9 hPa 0,0 l/m 0 min 0 min 0,0 UV-I 0 W/m 18,0 km/h (3 Bft)
09.12.2013 06:54 7,2 C 6,1 C 90 % 1026,0 hPa 0,0 l/m 0 min 0 min 0,0 UV-I 0 W/m 12,9 km/h (3 Bft)
09.12.2013 06:56 7,3 C 6,1 C 90 % 1026,0 hPa 0,0 l/m 0 min 0 min 0,0 UV-I 0 W/m 12,9 km/h (3 Bft)
09.12.2013 06:58 7,3 C 6,1 C 90 % 1026,0 hPa 0,0 l/m 0 min 0 min 0,0 UV-I 0 W/m 15,4 km/h (3 Bft)
09.12.2013 07:00 7,3 C 6,1 C 90 % 1026,0 hPa 0,0 l/m 0 min 0 min 0,0 UV-I 0 W/m 18,0 km/h (3 Bft)
09.12.2013 07:02 7,3 C 6,1 C 90 % 1026,0 hPa 0,0 l/m 0 min 0 min 0,0 UV-I 0 W/m 12,9 km/h (3 Bft)
09.12.2013 07:04 7,3 C 6,1 C 90 % 1026,0 hPa 0,0 l/m 0 min 0 min 0,0 UV-I 0 W/m 18,0 km/h (3 Bft)
09.12.2013 07:06 7,3 C 6,1 C 90 % 1026,1 hPa 0,0 l/m 0 min 0 min 0,0 UV-I 0 W/m 7,7 km/h (2 Bft)
09.12.2013 07:08 7,4 C 6,1 C 90 % 1026,3 hPa 0,0 l/m 0 min 0 min 0,0 UV-I 0 W/m 23,2 km/h (4 Bft)
09.12.2013 07:10 7,4 C 6,1 C 90 % 1026,1 hPa 0,0 l/m 0 min 0 min 0,0 UV-I 0 W/m 10,3 km/h (2 Bft)
09.12.2013 07:12 7,4 C 6,1 C 90 % 1026,1 hPa 0,0 l/m 0 min 0 min 0,0 UV-I 0 W/m 12,9 km/h (3 Bft)
09.12.2013 07:14 7,4 C 6,1 C 90 % 1026,2 hPa 0,0 l/m 0 min 0 min 0,0 UV-I 0 W/m 15,4 km/h (3 Bft)
09.12.2013 07:16 7,4 C 6,1 C 90 % 1026,2 hPa 0,0 l/m 0 min 0 min 0,0 UV-I 0 W/m 7,7 km/h (2 Bft)
09.12.2013 07:18 7,4 C 6,1 C 90 % 1026,1 hPa 0,0 l/m 0 min 0 min 0,0 UV-I 0 W/m 15,4 km/h (3 Bft)
09.12.2013 07:20 7,4 C 6,1 C 90 % 1026,1 hPa 0,0 l/m 0 min 0 min 0,0 UV-I 0 W/m 20,6 km/h (4 Bft)
09.12.2013 07:22 7,5 C 6,1 C 90 % 1026,1 hPa 0,0 l/m 0 min 0 min 0,0 UV-I 0 W/m 7,7 km/h (2 Bft)
09.12.2013 07:24 7,5 C 6,1 C 90 % 1026,0 hPa 0,0 l/m 0 min 0 min 0,0 UV-I 0 W/m 18,0 km/h (3 Bft)
09.12.2013 07:26 7,5 C 6,1 C 90 % 1026,1 hPa 0,0 l/m 0 min 0 min 0,0 UV-I 0 W/m 15,4 km/h (3 Bft)
09.12.2013 07:28 7,5 C 6,1 C 90 % 1026,1 hPa 0,0 l/m 0 min 0 min 0,0 UV-I 0 W/m 10,3 km/h (2 Bft)
09.12.2013 07:30 7,6 C 6,1 C 90 % 1026,2 hPa 0,0 l/m 0 min 0 min 0,0 UV-I 0 W/m 18,0 km/h (3 Bft)
09.12.2013 07:32 7,6 C 6,1 C 90 % 1026,0 hPa 0,0 l/m 0 min 0 min 0,0 UV-I 0 W/m 20,6 km/h (4 Bft)
09.12.2013 07:34 7,6 C 6,1 C 89 % 1026,1 hPa 0,0 l/m 0 min 0 min 0,0 UV-I 0 W/m 10,3 km/h (2 Bft)
09.12.2013 07:36 7,6 C 6,1 C 89 % 1026,1 hPa 0,0 l/m 0 min 0 min 0,0 UV-I 0 W/m 10,3 km/h (2 Bft)
09.12.2013 07:38 7,6 C 6,1 C 89 % 1026,1 hPa 0,0 l/m 0 min 0 min 0,0 UV-I 0 W/m 18,0 km/h (3 Bft)
09.12.2013 07:40 7,6 C 6,1 C 89 % 1026,1 hPa 0,0 l/m 0 min 0 min 0,0 UV-I 0 W/m 15,4 km/h (3 Bft)
09.12.2013 07:42 7,6 C 6,1 C 89 % 1026,2 hPa 0,0 l/m 0 min 0 min 0,0 UV-I 0 W/m 15,4 km/h (3 Bft)
09.12.2013 07:44 7,6 C 6,1 C 89 % 1026,4 hPa 0,0 l/m 0 min 0 min 0,0 UV-I 0 W/m 15,4 km/h (3 Bft)
09.12.2013 07:46 7,6 C 6,1 C 89 % 1026,4 hPa 0,0 l/m 0 min 0 min 0,0 UV-I 0 W/m 15,4 km/h (3 Bft)
09.12.2013 07:48 7,6 C 6,1 C 89 % 1026,3 hPa 0,0 l/m 0 min 0 min 0,0 UV-I 0 W/m 7,7 km/h (2 Bft)
09.12.2013 07:50 7,6 C 6,1 C 89 % 1026,3 hPa 0,0 l/m 0 min 0 min 0,0 UV-I 0 W/m 18,0 km/h (3 Bft)
09.12.2013 07:52 7,6 C 6,1 C 89 % 1026,5 hPa 0,0 l/m 0 min 0 min 0,0 UV-I 0 W/m 12,9 km/h (3 Bft)
09.12.2013 07:54 7,6 C 6,1 C 89 % 1026,4 hPa 0,0 l/m 0 min 0 min 0,0 UV-I 0 W/m 18,0 km/h (3 Bft)
09.12.2013 07:56 7,6 C 6,1 C 89 % 1026,4 hPa 0,0 l/m 0 min 0 min 0,0 UV-I 0 W/m 23,2 km/h (4 Bft)
09.12.2013 07:58 7,6 C 6,1 C 89 % 1026,5 hPa 0,0 l/m 0 min 0 min 0,0 UV-I 0 W/m 10,3 km/h (2 Bft)
09.12.2013 08:00 7,5 C 6,1 C 89 % 1026,5 hPa 0,0 l/m 0 min 0 min 0,0 UV-I 0 W/m 7,7 km/h (2 Bft)
09.12.2013 08:02 7,5 C 6,1 C 89 % 1026,6 hPa 0,0 l/m 0 min 0 min 0,0 UV-I 0 W/m 12,9 km/h (3 Bft)
09.12.2013 08:06 7,5 C 6,1 C 89 % 1026,5 hPa 0,0 l/m 0 min 0 min 0,0 UV-I 0 W/m 12,9 km/h (3 Bft)
09.12.2013 08:08 7,5 C 6,1 C 89 % 1026,6 hPa 0,0 l/m 0 min 0 min 0,0 UV-I 0 W/m 10,3 km/h (2 Bft)
09.12.2013 08:10 7,5 C 6,1 C 89 % 1026,5 hPa 0,0 l/m 0 min 0 min 0,0 UV-I 0 W/m 15,4 km/h (3 Bft)
09.12.2013 08:12 7,4 C 6,1 C 89 % 1026,7 hPa 0,0 l/m 0 min 0 min 0,0 UV-I 0 W/m 12,9 km/h (3 Bft)
09.12.2013 08:14 7,4 C 6,1 C 89 % 1026,4 hPa 0,0 l/m 0 min 0 min 0,0 UV-I 0 W/m 18,0 km/h (3 Bft)
09.12.2013 08:16 7,4 C 5,6 C 89 % 1026,6 hPa 0,0 l/m 0 min 0 min 0,0 UV-I 0 W/m 10,3 km/h (2 Bft)
09.12.2013 08:18 7,4 C 6,1 C 89 % 1026,6 hPa 0,0 l/m 0 min 0 min 0,0 UV-I 0 W/m 18,0 km/h (3 Bft)
09.12.2013 08:20 7,4 C 5,6 C 89 % 1026,6 hPa 0,0 l/m 0 min 0 min 0,0 UV-I 0 W/m 18,0 km/h (3 Bft)
09.12.2013 08:22 7,4 C 6,1 C 89 % 1026,6 hPa 0,0 l/m 0 min 0 min 0,0 UV-I 0 W/m 25,7 km/h (4 Bft)
09.12.2013 08:24 7,4 C 6,1 C 89 % 1026,7 hPa 0,0 l/m 0 min 0 min 0,0 UV-I 0 W/m 15,4 km/h (3 Bft)
09.12.2013 08:26 7,3 C 6,1 C 89 % 1026,8 hPa 0,0 l/m 0 min 0 min 0,0 UV-I 0 W/m 20,6 km/h (4 Bft)
09.12.2013 08:28 7,3 C 6,1 C 89 % 1026,8 hPa 0,0 l/m 0 min 0 min 0,0 UV-I 0 W/m 12,9 km/h (3 Bft)
09.12.2013 08:30 7,3 C 6,1 C 89 % 1026,9 hPa 0,0 l/m 0 min 0 min 0,0 UV-I 0 W/m 23,2 km/h (4 Bft)
09.12.2013 08:32 7,3 C 6,1 C 89 % 1026,9 hPa 0,0 l/m 0 min 0 min 0,0 UV-I 0 W/m 23,2 km/h (4 Bft)
09.12.2013 08:34 7,3 C 6,1 C 89 % 1026,9 hPa 0,0 l/m 0 min 0 min 0,0 UV-I 5 W/m 15,4 km/h (3 Bft)
09.12.2013 08:36 7,3 C 6,1 C 89 % 1027,0 hPa 0,0 l/m 0 min 0 min 0,0 UV-I 5 W/m 12,9 km/h (3 Bft)
09.12.2013 08:38 7,3 C 6,1 C 89 % 1027,1 hPa 0,0 l/m 0 min 0 min 0,0 UV-I 5 W/m 15,4 km/h (3 Bft)
09.12.2013 08:40 7,3 C 6,1 C 89 % 1027,0 hPa 0,0 l/m 0 min 0 min 0,0 UV-I 7 W/m 12,9 km/h (3 Bft)
09.12.2013 08:42 7,3 C 6,1 C 89 % 1027,0 hPa 0,0 l/m 0 min 0 min 0,0 UV-I 9 W/m 18,0 km/h (3 Bft)
09.12.2013 08:44 7,3 C 6,1 C 89 % 1027,1 hPa 0,0 l/m 0 min 0 min 0,0 UV-I 9 W/m 15,4 km/h (3 Bft)
09.12.2013 08:46 7,3 C 6,1 C 89 % 1027,0 hPa 0,0 l/m 0 min 0 min 0,0 UV-I 11 W/m 18,0 km/h (3 Bft)
09.12.2013 08:48 7,3 C 5,6 C 89 % 1027,0 hPa 0,0 l/m 0 min 0 min 0,0 UV-I 12 W/m 12,9 km/h (3 Bft)
09.12.2013 08:50 7,2 C 5,6 C 89 % 1026,9 hPa 0,0 l/m 0 min 0 min 0,0 UV-I 12 W/m 2,6 km/h (1 Bft)
09.12.2013 08:52 7,2 C 5,6 C 89 % 1027,0 hPa 0,0 l/m 0 min 0 min 0,0 UV-I 14 W/m 7,7 km/h (2 Bft)
09.12.2013 08:54 7,2 C 5,6 C 89 % 1027,0 hPa 0,0 l/m 0 min 0 min 0,0 UV-I 16 W/m 7,7 km/h (2 Bft)
09.12.2013 08:56 7,2 C 5,6 C 89 % 1027,0 hPa 0,0 l/m 0 min 0 min 0,0 UV-I 18 W/m 20,6 km/h (4 Bft)
09.12.2013 08:58 7,2 C 5,6 C 89 % 1027,1 hPa 0,0 l/m 0 min 0 min 0,0 UV-I 18 W/m 25,7 km/h (4 Bft)
09.12.2013 09:00 7,1 C 5,6 C 89 % 1027,1 hPa 0,0 l/m 0 min 0 min 0,0 UV-I 19 W/m 10,3 km/h (2 Bft)
09.12.2013 09:02 7,1 C 5,6 C 89 % 1027,2 hPa 0,0 l/m 0 min 0 min 0,0 UV-I 21 W/m 5,1 km/h (1 Bft)
09.12.2013 09:04 7,1 C 5,6 C 89 % 1027,3 hPa 0,0 l/m 0 min 0 min 0,0 UV-I 23 W/m 7,7 km/h (2 Bft)
09.12.2013 09:06 7,1 C 5,6 C 89 % 1027,3 hPa 0,0 l/m 0 min 0 min 0,0 UV-I 25 W/m 12,9 km/h (3 Bft)
09.12.2013 09:08 7,1 C 5,6 C 89 % 1027,4 hPa 0,0 l/m 0 min 0 min 0,0 UV-I 25 W/m 12,9 km/h (3 Bft)
09.12.2013 09:10 7,1 C 5,6 C 89 % 1027,4 hPa 0,0 l/m 0 min 0 min 0,0 UV-I 25 W/m 12,9 km/h (3 Bft)
09.12.2013 09:12 7,0 C 5,6 C 89 % 1027,5 hPa 0,0 l/m 0 min 0 min 0,0 UV-I 25 W/m 12,9 km/h (3 Bft)
09.12.2013 09:14 7,0 C 5,6 C 89 % 1027,5 hPa 0,0 l/m 0 min 0 min 0,0 UV-I 23 W/m 12,9 km/h (3 Bft)
09.12.2013 09:16 7,0 C 5,6 C 89 % 1027,4 hPa 0,0 l/m 0 min 0 min 0,0 UV-I 21 W/m 7,7 km/h (2 Bft)
09.12.2013 09:18 7,0 C 5,6 C 89 % 1027,5 hPa 0,0 l/m 0 min 0 min 0,0 UV-I 21 W/m 12,9 km/h (3 Bft)
09.12.2013 09:20 7,0 C 5,6 C 89 % 1027,6 hPa 0,0 l/m 0 min 0 min 0,0 UV-I 21 W/m 12,9 km/h (3 Bft)
09.12.2013 09:22 7,0 C 5,6 C 89 % 1027,6 hPa 0,0 l/m 0 min 0 min 0,0 UV-I 23 W/m 10,3 km/h (2 Bft)
09.12.2013 09:24 7,0 C 5,6 C 89 % 1027,7 hPa 0,0 l/m 0 min 0 min 0,0 UV-I 25 W/m 23,2 km/h (4 Bft)
09.12.2013 09:26 7,0 C 5,6 C 89 % 1027,8 hPa 0,0 l/m 0 min 0 min 0,0 UV-I 26 W/m 15,4 km/h (3 Bft)
09.12.2013 09:28 7,0 C 6,1 C 89 % 1027,7 hPa 0,0 l/m 0 min 0 min 0,0 UV-I 30 W/m 10,3 km/h (2 Bft)
09.12.2013 09:30 7,1 C 6,1 C 89 % 1027,7 hPa 0,0 l/m 0 min 0 min 0,0 UV-I 33 W/m 10,3 km/h (2 Bft)
09.12.2013 09:32 7,1 C 6,1 C 89 % 1027,8 hPa 0,0 l/m 0 min 0 min 0,0 UV-I 37 W/m 20,6 km/h (4 Bft)
09.12.2013 09:34 7,1 C 6,1 C 89 % 1027,8 hPa 0,0 l/m 0 min 0 min 0,0 UV-I 40 W/m 7,7 km/h (2 Bft)
09.12.2013 09:36 7,1 C 6,1 C 89 % 1027,8 hPa 0,0 l/m 0 min 0 min 0,0 UV-I 42 W/m 15,4 km/h (3 Bft)
09.12.2013 09:38 7,1 C 6,1 C 89 % 1027,8 hPa 0,0 l/m 0 min 0 min 0,0 UV-I 42 W/m 12,9 km/h (3 Bft)
09.12.2013 09:40 7,1 C 6,1 C 89 % 1027,8 hPa 0,0 l/m 0 min 0 min 0,0 UV-I 42 W/m 12,9 km/h (3 Bft)
09.12.2013 09:42 7,1 C 6,1 C 89 % 1027,9 hPa 0,0 l/m 0 min 0 min 0,0 UV-I 40 W/m 18,0 km/h (3 Bft)
09.12.2013 09:44 7,1 C 6,1 C 89 % 1027,9 hPa 0,0 l/m 0 min 0 min 0,0 UV-I 40 W/m 10,3 km/h (2 Bft)
09.12.2013 09:46 7,1 C 6,1 C 89 % 1027,9 hPa 0,0 l/m 0 min 0 min 0,0 UV-I 40 W/m 15,4 km/h (3 Bft)
09.12.2013 09:48 7,1 C 6,1 C 89 % 1028,0 hPa 0,0 l/m 0 min 0 min 0,0 UV-I 40 W/m 12,9 km/h (3 Bft)
09.12.2013 09:50 7,1 C 6,1 C 89 % 1028,0 hPa 0,0 l/m 0 min 0 min 0,0 UV-I 44 W/m 20,6 km/h (4 Bft)
09.12.2013 09:52 7,2 C 6,1 C 89 % 1028,0 hPa 0,0 l/m 0 min 0 min 0,0 UV-I 53 W/m 18,0 km/h (3 Bft)
09.12.2013 09:54 7,2 C 6,1 C 89 % 1028,0 hPa 0,0 l/m 0 min 0 min 0,0 UV-I 58 W/m 12,9 km/h (3 Bft)
09.12.2013 09:56 7,2 C 6,1 C 89 % 1027,9 hPa 0,0 l/m 0 min 0 min 0,0 UV-I 58 W/m 15,4 km/h (3 Bft)
09.12.2013 09:58 7,2 C 6,1 C 89 % 1028,0 hPa 0,0 l/m 0 min 0 min 0,0 UV-I 60 W/m 20,6 km/h (4 Bft)
09.12.2013 10:00 7,2 C 6,1 C 89 % 1028,0 hPa 0,0 l/m 0 min 0 min 0,0 UV-I 62 W/m 7,7 km/h (2 Bft)
09.12.2013 10:02 7,2 C 6,1 C 89 % 1028,0 hPa 0,0 l/m 0 min 0 min 0,0 UV-I 67 W/m 10,3 km/h (2 Bft)
09.12.2013 10:06 7,2 C 6,1 C 89 % 1028,1 hPa 0,0 l/m 0 min 0 min 0,0 UV-I 65 W/m 25,7 km/h (4 Bft)
09.12.2013 10:08 7,2 C 6,1 C 89 % 1028,0 hPa 0,0 l/m 0 min 0 min 0,0 UV-I 65 W/m 20,6 km/h (4 Bft)
09.12.2013 10:10 7,2 C 6,1 C 89 % 1028,1 hPa 0,0 l/m 0 min 0 min 0,0 UV-I 65 W/m 15,4 km/h (3 Bft)
09.12.2013 10:12 7,3 C 6,7 C 89 % 1028,2 hPa 0,0 l/m 0 min 0 min 0,0 UV-I 69 W/m 23,2 km/h (4 Bft)
09.12.2013 10:14 7,3 C 6,7 C 89 % 1028,1 hPa 0,0 l/m 0 min 0 min 0,0 UV-I 72 W/m 10,3 km/h (2 Bft)
09.12.2013 10:16 7,3 C 6,7 C 89 % 1028,1 hPa 0,0 l/m 0 min 0 min 0,0 UV-I 74 W/m 10,3 km/h (2 Bft)
09.12.2013 10:18 7,3 C 6,7 C 89 % 1028,2 hPa 0,0 l/m 0 min 0 min 0,0 UV-I 74 W/m 12,9 km/h (3 Bft)
09.12.2013 10:20 7,3 C 6,7 C 89 % 1028,2 hPa 0,0 l/m 0 min 0 min 0,0 UV-I 69 W/m 10,3 km/h (2 Bft)
09.12.2013 10:22 7,3 C 6,7 C 89 % 1028,3 hPa 0,0 l/m 0 min 0 min 0,0 UV-I 67 W/m 20,6 km/h (4 Bft)
09.12.2013 10:24 7,3 C 6,1 C 89 % 1028,2 hPa 0,0 l/m 0 min 0 min 0,0 UV-I 67 W/m 20,6 km/h (4 Bft)
09.12.2013 10:26 7,4 C 6,1 C 89 % 1028,2 hPa 0,0 l/m 0 min 0 min 0,0 UV-I 67 W/m 15,4 km/h (3 Bft)
09.12.2013 10:28 7,4 C 6,1 C 89 % 1028,3 hPa 0,0 l/m 0 min 0 min 0,0 UV-I 70 W/m 10,3 km/h (2 Bft)
09.12.2013 10:30 7,4 C 6,1 C 89 % 1028,4 hPa 0,0 l/m 0 min 0 min 0,0 UV-I 72 W/m 15,4 km/h (3 Bft)
09.12.2013 10:32 7,4 C 6,1 C 88 % 1028,3 hPa 0,0 l/m 0 min 0 min 0,0 UV-I 74 W/m 18,0 km/h (3 Bft)
09.12.2013 10:34 7,4 C 6,1 C 88 % 1028,4 hPa 0,0 l/m 0 min 0 min 0,0 UV-I 74 W/m 23,2 km/h (4 Bft)
09.12.2013 10:36 7,4 C 6,1 C 88 % 1028,4 hPa 0,0 l/m 0 min 0 min 0,0 UV-I 74 W/m 18,0 km/h (3 Bft)
09.12.2013 10:38 7,4 C 6,1 C 88 % 1028,4 hPa 0,0 l/m 0 min 0 min 0,0 UV-I 74 W/m 18,0 km/h (3 Bft)
09.12.2013 10:40 7,4 C 6,1 C 88 % 1028,4 hPa 0,0 l/m 0 min 0 min 0,0 UV-I 72 W/m 15,4 km/h (3 Bft)
09.12.2013 10:42 7,4 C 6,1 C 88 % 1028,5 hPa 0,0 l/m 0 min 0 min 0,0 UV-I 72 W/m 12,9 km/h (3 Bft)
09.12.2013 10:44 7,4 C 6,1 C 89 % 1028,5 hPa 0,0 l/m 0 min 0 min 0,0 UV-I 72 W/m 15,4 km/h (3 Bft)
09.12.2013 10:46 7,4 C 6,1 C 89 % 1028,6 hPa 0,0 l/m 0 min 0 min 0,0 UV-I 76 W/m 20,6 km/h (4 Bft)
09.12.2013 10:48 7,4 C 6,1 C 89 % 1028,6 hPa 0,0 l/m 0 min 0 min 0,0 UV-I 79 W/m 15,4 km/h (3 Bft)
09.12.2013 10:50 7,4 C 6,1 C 89 % 1028,5 hPa 0,0 l/m 0 min 0 min 0,0 UV-I 81 W/m 12,9 km/h (3 Bft)
09.12.2013 10:52 7,4 C 6,1 C 89 % 1028,6 hPa 0,0 l/m 0 min 0 min 0,0 UV-I 79 W/m 12,9 km/h (3 Bft)
09.12.2013 10:54 7,4 C 6,1 C 89 % 1028,5 hPa 0,0 l/m 0 min 0 min 0,0 UV-I 79 W/m 15,4 km/h (3 Bft)
09.12.2013 10:56 7,4 C 6,1 C 89 % 1028,5 hPa 0,0 l/m 0 min 0 min 0,0 UV-I 81 W/m 18,0 km/h (3 Bft)
09.12.2013 10:58 7,4 C 6,1 C 89 % 1028,5 hPa 0,0 l/m 0 min 0 min 0,0 UV-I 84 W/m 12,9 km/h (3 Bft)
09.12.2013 11:00 7,4 C 6,1 C 89 % 1028,6 hPa 0,0 l/m 0 min 0 min 0,0 UV-I 86 W/m 12,9 km/h (3 Bft)
09.12.2013 11:02 7,4 C 6,1 C 89 % 1028,6 hPa 0,0 l/m 2 min 0 min 0,0 UV-I 134 W/m 12,9 km/h (3 Bft)
09.12.2013 11:06 7,4 C 6,1 C 89 % 1028,7 hPa 0,0 l/m 2 min 0 min 0,0 UV-I 135 W/m 15,4 km/h (3 Bft)
09.12.2013 11:08 7,5 C 6,1 C 89 % 1028,6 hPa 0,0 l/m 0 min 0 min 0,0 UV-I 111 W/m 10,3 km/h (2 Bft)
09.12.2013 11:10 7,5 C 6,1 C 89 % 1028,7 hPa 0,0 l/m 0 min 0 min 0,0 UV-I 135 W/m 10,3 km/h (2 Bft)
09.12.2013 11:12 7,6 C 6,1 C 89 % 1028,7 hPa 0,0 l/m 0 min 0 min 0,0 UV-I 111 W/m 15,4 km/h (3 Bft)
09.12.2013 11:14 7,6 C 6,1 C 89 % 1028,8 hPa 0,0 l/m 0 min 0 min 0,0 UV-I 97 W/m 12,9 km/h (3 Bft)
09.12.2013 11:16 7,6 C 6,1 C 88 % 1028,8 hPa 0,0 l/m 0 min 0 min 0,0 UV-I 93 W/m 12,9 km/h (3 Bft)
09.12.2013 11:18 7,5 C 6,1 C 88 % 1028,8 hPa 0,0 l/m 0 min 0 min 0,0 UV-I 97 W/m 15,4 km/h (3 Bft)
09.12.2013 11:20 7,5 C 6,1 C 89 % 1028,7 hPa 0,0 l/m 0 min 0 min 0,0 UV-I 118 W/m 15,4 km/h (3 Bft)
09.12.2013 11:22 7,6 C 6,7 C 89 % 1028,7 hPa 0,0 l/m 2 min 0 min 0,0 UV-I 142 W/m 10,3 km/h (2 Bft)
09.12.2013 11:24 7,6 C 6,7 C 88 % 1028,8 hPa 0,0 l/m 2 min 0 min 0,0 UV-I 153 W/m 5,1 km/h (1 Bft)
09.12.2013 11:26 7,6 C 6,7 C 89 % 1028,6 hPa 0,0 l/m 0 min 0 min 0,0 UV-I 141 W/m 15,4 km/h (3 Bft)
09.12.2013 11:28 7,7 C 6,7 C 88 % 1028,5 hPa 0,0 l/m 2 min 0 min 0,0 UV-I 148 W/m 12,9 km/h (3 Bft)
09.12.2013 11:30 7,7 C 6,7 C 88 % 1028,5 hPa 0,0 l/m 2 min 0 min 0,0 UV-I 156 W/m 18,0 km/h (3 Bft)
09.12.2013 11:32 7,7 C 6,7 C 88 % 1028,5 hPa 0,0 l/m 0 min 0 min 0,0 UV-I 141 W/m 20,6 km/h (4 Bft)
09.12.2013 11:34 7,7 C 6,7 C 88 % 1028,6 hPa 0,0 l/m 2 min 0 min 0,0 UV-I 190 W/m 5,1 km/h (1 Bft)
09.12.2013 11:36 7,8 C 6,7 C 88 % 1028,6 hPa 0,0 l/m 2 min 0 min 0,0 UV-I 190 W/m 18,0 km/h (3 Bft)
09.12.2013 11:38 7,9 C 6,7 C 88 % 1028,6 hPa 0,0 l/m 2 min 0 min 0,0 UV-I 176 W/m 12,9 km/h (3 Bft)
09.12.2013 11:40 7,9 C 6,7 C 88 % 1028,6 hPa 0,0 l/m 0 min 0 min 0,0 UV-I 132 W/m 15,4 km/h (3 Bft)
09.12.2013 11:42 7,9 C 6,7 C 88 % 1028,5 hPa 0,0 l/m 2 min 0 min 0,0 UV-I 163 W/m 20,6 km/h (4 Bft)
09.12.2013 11:44 7,9 C 6,7 C 87 % 1028,5 hPa 0,0 l/m 2 min 0 min 0,0 UV-I 174 W/m 10,3 km/h (2 Bft)
09.12.2013 11:46 7,9 C 6,7 C 87 % 1028,6 hPa 0,0 l/m 2 min 0 min 0,0 UV-I 167 W/m 12,9 km/h (3 Bft)
09.12.2013 11:48 7,9 C 6,7 C 87 % 1028,5 hPa 0,0 l/m 0 min 0 min 0,0 UV-I 149 W/m 12,9 km/h (3 Bft)
09.12.2013 11:50 7,9 C 6,7 C 87 % 1028,6 hPa 0,0 l/m 0 min 0 min 0,0 UV-I 127 W/m 7,7 km/h (2 Bft)
09.12.2013 11:52 8,0 C 6,7 C 87 % 1028,6 hPa 0,0 l/m 0 min 0 min 0,0 UV-I 113 W/m 2,6 km/h (1 Bft)
09.12.2013 11:54 8,0 C 6,7 C 87 % 1028,6 hPa 0,0 l/m 0 min 0 min 0,0 UV-I 105 W/m 12,9 km/h (3 Bft)
09.12.2013 11:56 7,9 C 6,7 C 87 % 1028,6 hPa 0,0 l/m 0 min 0 min 0,0 UV-I 121 W/m 18,0 km/h (3 Bft)
09.12.2013 11:58 7,9 C 6,7 C 87 % 1028,6 hPa 0,0 l/m 0 min 0 min 0,0 UV-I 113 W/m 10,3 km/h (2 Bft)
09.12.2013 12:00 7,9 C 6,7 C 87 % 1028,6 hPa 0,0 l/m 0 min 0 min 0,0 UV-I 149 W/m 10,3 km/h (2 Bft)
09.12.2013 12:02 7,9 C 6,7 C 87 % 1028,6 hPa 0,0 l/m 0 min 0 min 0,0 UV-I 134 W/m 23,2 km/h (4 Bft)
09.12.2013 12:04 7,9 C 6,7 C 87 % 1028,6 hPa 0,0 l/m 0 min 0 min 0,0 UV-I 125 W/m 18,0 km/h (3 Bft)
09.12.2013 12:06 7,9 C 6,7 C 87 % 1028,6 hPa 0,0 l/m 0 min 0 min 0,0 UV-I 142 W/m 23,2 km/h (4 Bft)
09.12.2013 12:08 8,0 C 6,7 C 87 % 1028,7 hPa 0,0 l/m 2 min 0 min 0,0 UV-I 155 W/m 15,4 km/h (3 Bft)
09.12.2013 12:10 8,0 C 6,7 C 87 % 1028,7 hPa 0,0 l/m 2 min 0 min 0,0 UV-I 174 W/m 12,9 km/h (3 Bft)
09.12.2013 12:12 8,1 C 6,7 C 87 % 1028,8 hPa 0,0 l/m 2 min 0 min 0,0 UV-I 193 W/m 18,0 km/h (3 Bft)
09.12.2013 12:14 8,1 C 6,7 C 87 % 1028,6 hPa 0,0 l/m 2 min 0 min 0,0 UV-I 174 W/m 7,7 km/h (2 Bft)
09.12.2013 12:16 8,2 C 7,2 C 87 % 1028,6 hPa 0,0 l/m 2 min 0 min 0,0 UV-I 218 W/m 2,6 km/h (1 Bft)
09.12.2013 12:18 8,3 C 7,2 C 87 % 1028,7 hPa 0,0 l/m 2 min 0 min 0,0 UV-I 223 W/m 10,3 km/h (2 Bft)
09.12.2013 12:20 8,3 C 7,2 C 87 % 1028,8 hPa 0,0 l/m 2 min 0 min 0,0 UV-I 239 W/m 20,6 km/h (4 Bft)
09.12.2013 12:22 8,4 C 7,2 C 87 % 1028,7 hPa 0,0 l/m 2 min 0 min 0,0 UV-I 236 W/m 23,2 km/h (4 Bft)
09.12.2013 12:24 8,5 C 7,2 C 87 % 1028,7 hPa 0,0 l/m 2 min 0 min 0,0 UV-I 218 W/m 10,3 km/h (2 Bft)
09.12.2013 12:26 8,5 C 7,2 C 86 % 1028,7 hPa 0,0 l/m 2 min 0 min 0,0 UV-I 188 W/m 10,3 km/h (2 Bft)
09.12.2013 12:28 8,6 C 7,2 C 86 % 1028,8 hPa 0,0 l/m 2 min 0 min 0,0 UV-I 192 W/m 5,1 km/h (1 Bft)
09.12.2013 12:30 8,6 C 7,2 C 86 % 1028,6 hPa 0,0 l/m 0 min 0 min 0,0 UV-I 134 W/m 5,1 km/h (1 Bft)
09.12.2013 12:32 8,6 C 7,2 C 86 % 1028,7 hPa 0,0 l/m 0 min 0 min 0,0 UV-I 135 W/m 25,7 km/h (4 Bft)
09.12.2013 12:34 8,5 C 7,2 C 86 % 1028,7 hPa 0,0 l/m 2 min 0 min 0,0 UV-I 169 W/m 12,9 km/h (3 Bft)
09.12.2013 12:36 8,5 C 7,2 C 86 % 1028,7 hPa 0,0 l/m 2 min 0 min 0,0 UV-I 162 W/m 7,7 km/h (2 Bft)
09.12.2013 12:38 8,5 C 7,2 C 86 % 1028,8 hPa 0,0 l/m 2 min 0 min 0,0 UV-I 193 W/m 12,9 km/h (3 Bft)
09.12.2013 12:40 8,5 C 7,2 C 86 % 1028,8 hPa 0,0 l/m 2 min 0 min 0,0 UV-I 195 W/m 10,3 km/h (2 Bft)
09.12.2013 12:42 8,6 C 7,2 C 86 % 1028,8 hPa 0,0 l/m 2 min 0 min 0,0 UV-I 192 W/m 7,7 km/h (2 Bft)
09.12.2013 12:44 8,6 C 7,2 C 86 % 1028,9 hPa 0,0 l/m 2 min 0 min 0,0 UV-I 186 W/m 12,9 km/h (3 Bft)
09.12.2013 12:46 8,6 C 7,2 C 86 % 1028,9 hPa 0,0 l/m 2 min 0 min 0,0 UV-I 171 W/m 20,6 km/h (4 Bft)
09.12.2013 12:48 8,6 C 7,2 C 86 % 1028,9 hPa 0,0 l/m 2 min 0 min 0,0 UV-I 188 W/m 7,7 km/h (2 Bft)
09.12.2013 12:50 8,6 C 7,2 C 86 % 1028,9 hPa 0,0 l/m 2 min 0 min 0,0 UV-I 195 W/m 7,7 km/h (2 Bft)
09.12.2013 12:52 8,7 C 7,8 C 86 % 1028,9 hPa 0,0 l/m 2 min 0 min 0,0 UV-I 214 W/m 12,9 km/h (3 Bft)
09.12.2013 12:54 8,7 C 7,8 C 86 % 1028,9 hPa 0,0 l/m 2 min 0 min 0,0 UV-I 230 W/m 15,4 km/h (3 Bft)
09.12.2013 12:56 8,8 C 7,8 C 86 % 1028,8 hPa 0,0 l/m 2 min 0 min 0,0 UV-I 229 W/m 10,3 km/h (2 Bft)
09.12.2013 12:58 8,9 C 7,8 C 86 % 1028,8 hPa 0,0 l/m 2 min 0 min 0,0 UV-I 221 W/m 7,7 km/h (2 Bft)
09.12.2013 13:00 8,9 C 7,8 C 86 % 1028,7 hPa 0,0 l/m 2 min 0 min 0,0 UV-I 229 W/m 10,3 km/h (2 Bft)
09.12.2013 13:02 8,9 C 7,8 C 86 % 1028,6 hPa 0,0 l/m 2 min 0 min 0,0 UV-I 229 W/m 18,0 km/h (3 Bft)
09.12.2013 13:04 8,9 C 7,8 C 85 % 1028,7 hPa 0,0 l/m 2 min 0 min 0,0 UV-I 229 W/m 18,0 km/h (3 Bft)
09.12.2013 13:06 8,9 C 7,8 C 86 % 1028,7 hPa 0,0 l/m 2 min 0 min 0,0 UV-I 248 W/m 12,9 km/h (3 Bft)
09.12.2013 13:08 8,9 C 7,8 C 85 % 1028,6 hPa 0,0 l/m 2 min 0 min 0,0 UV-I 243 W/m 12,9 km/h (3 Bft)
09.12.2013 13:10 9,0 C 7,8 C 85 % 1028,6 hPa 0,0 l/m 2 min 0 min 0,0 UV-I 250 W/m 12,9 km/h (3 Bft)
09.12.2013 13:12 9,1 C 8,3 C 86 % 1028,6 hPa 0,0 l/m 2 min 0 min 0,0 UV-I 258 W/m 12,9 km/h (3 Bft)
09.12.2013 13:14 9,2 C 8,3 C 85 % 1028,6 hPa 0,0 l/m 2 min 0 min 0,0 UV-I 234 W/m 12,9 km/h (3 Bft)
09.12.2013 13:16 9,2 C 8,3 C 85 % 1028,6 hPa 0,0 l/m 2 min 0 min 0,0 UV-I 225 W/m 7,7 km/h (2 Bft)
09.12.2013 13:18 9,3 C 8,3 C 85 % 1028,5 hPa 0,0 l/m 2 min 0 min 0,0 UV-I 206 W/m 7,7 km/h (2 Bft)
09.12.2013 13:20 9,3 C 8,3 C 85 % 1028,5 hPa 0,0 l/m 2 min 0 min 0,0 UV-I 214 W/m 10,3 km/h (2 Bft)
09.12.2013 13:22 9,4 C 8,3 C 85 % 1028,6 hPa 0,0 l/m 2 min 0 min 0,0 UV-I 209 W/m 2,6 km/h (1 Bft)
09.12.2013 13:24 9,4 C 8,3 C 85 % 1028,7 hPa 0,0 l/m 0 min 0 min 0,0 UV-I 95 W/m 7,7 km/h (2 Bft)
09.12.2013 13:26 9,3 C 8,3 C 85 % 1028,7 hPa 0,0 l/m 0 min 0 min 0,0 UV-I 93 W/m 5,1 km/h (1 Bft)
09.12.2013 13:28 9,2 C 8,3 C 85 % 1028,8 hPa 0,0 l/m 2 min 0 min 0,0 UV-I 204 W/m 10,3 km/h (2 Bft)
09.12.2013 13:30 9,2 C 8,3 C 85 % 1028,8 hPa 0,0 l/m 2 min 0 min 0,0 UV-I 200 W/m 10,3 km/h (2 Bft)
09.12.2013 13:32 9,3 C 8,3 C 85 % 1028,8 hPa 0,0 l/m 2 min 0 min 0,0 UV-I 237 W/m 5,1 km/h (1 Bft)
09.12.2013 13:34 9,3 C 8,3 C 85 % 1028,7 hPa 0,0 l/m 2 min 0 min 0,0 UV-I 211 W/m 7,7 km/h (2 Bft)
09.12.2013 13:36 9,3 C 8,3 C 85 % 1028,6 hPa 0,0 l/m 2 min 0 min 0,0 UV-I 190 W/m 5,1 km/h (1 Bft)
09.12.2013 13:38 9,4 C 8,9 C 85 % 1028,7 hPa 0,0 l/m 2 min 0 min 0,0 UV-I 225 W/m 0,0 km/h (0 Bft)
09.12.2013 13:40 9,6 C 8,9 C 85 % 1028,7 hPa 0,0 l/m 2 min 0 min 0,0 UV-I 244 W/m 7,7 km/h (2 Bft)
09.12.2013 13:42 9,6 C 8,9 C 85 % 1028,8 hPa 0,0 l/m 2 min 0 min 0,0 UV-I 250 W/m 12,9 km/h (3 Bft)
09.12.2013 13:44 9,6 C 8,9 C 84 % 1028,9 hPa 0,0 l/m 2 min 0 min 0,0 UV-I 239 W/m 10,3 km/h (2 Bft)
09.12.2013 13:46 9,7 C 8,9 C 85 % 1029,0 hPa 0,0 l/m 2 min 0 min 0,0 UV-I 250 W/m 10,3 km/h (2 Bft)
09.12.2013 13:48 9,7 C 8,9 C 84 % 1028,8 hPa 0,0 l/m 2 min 0 min 0,0 UV-I 236 W/m 7,7 km/h (2 Bft)
09.12.2013 13:50 9,7 C 8,9 C 84 % 1028,8 hPa 0,0 l/m 2 min 0 min 0,0 UV-I 239 W/m 10,3 km/h (2 Bft)
09.12.2013 13:52 9,7 C 8,9 C 84 % 1028,8 hPa 0,0 l/m 2 min 0 min 0,0 UV-I 237 W/m 10,3 km/h (2 Bft)
09.12.2013 13:54 9,7 C 8,9 C 84 % 1028,9 hPa 0,0 l/m 2 min 0 min 0,0 UV-I 207 W/m 18,0 km/h (3 Bft)
09.12.2013 13:56 9,6 C 8,9 C 84 % 1028,9 hPa 0,0 l/m 2 min 0 min 0,0 UV-I 190 W/m 10,3 km/h (2 Bft)
09.12.2013 13:58 9,6 C 8,9 C 84 % 1028,9 hPa 0,0 l/m 2 min 0 min 0,0 UV-I 179 W/m 5,1 km/h (1 Bft)
09.12.2013 14:00 9,6 C 8,9 C 85 % 1028,8 hPa 0,0 l/m 2 min 0 min 0,0 UV-I 183 W/m 10,3 km/h (2 Bft)
09.12.2013 14:02 9,6 C 8,9 C 84 % 1028,9 hPa 0,0 l/m 2 min 0 min 0,0 UV-I 183 W/m 12,9 km/h (3 Bft)
09.12.2013 14:06 9,6 C 8,9 C 85 % 1028,9 hPa 0,0 l/m 2 min 0 min 0,0 UV-I 148 W/m 10,3 km/h (2 Bft)
09.12.2013 14:08 9,6 C 8,9 C 84 % 1028,9 hPa 0,0 l/m 2 min 0 min 0,0 UV-I 195 W/m 15,4 km/h (3 Bft)
09.12.2013 14:10 9,5 C 8,3 C 84 % 1029,0 hPa 0,0 l/m 2 min 0 min 0,0 UV-I 165 W/m 20,6 km/h (4 Bft)
09.12.2013 14:12 9,5 C 8,3 C 84 % 1029,0 hPa 0,0 l/m 2 min 0 min 0,0 UV-I 185 W/m 10,3 km/h (2 Bft)
09.12.2013 14:14 9,5 C 8,3 C 84 % 1029,0 hPa 0,0 l/m 2 min 0 min 0,0 UV-I 160 W/m 7,7 km/h (2 Bft)
09.12.2013 14:16 9,5 C 8,3 C 84 % 1029,0 hPa 0,0 l/m 2 min 0 min 0,0 UV-I 186 W/m 10,3 km/h (2 Bft)
09.12.2013 14:18 9,5 C 8,3 C 84 % 1029,1 hPa 0,0 l/m 2 min 0 min 0,0 UV-I 183 W/m 12,9 km/h (3 Bft)
09.12.2013 14:20 9,5 C 8,3 C 84 % 1029,0 hPa 0,0 l/m 2 min 0 min 0,0 UV-I 172 W/m 7,7 km/h (2 Bft)
09.12.2013 14:22 9,5 C 8,3 C 84 % 1029,0 hPa 0,0 l/m 2 min 0 min 0,0 UV-I 130 W/m 10,3 km/h (2 Bft)
09.12.2013 14:24 9,5 C 8,3 C 84 % 1029,0 hPa 0,0 l/m 2 min 0 min 0,0 UV-I 142 W/m 12,9 km/h (3 Bft)
09.12.2013 14:26 9,4 C 8,3 C 84 % 1029,0 hPa 0,0 l/m 2 min 0 min 0,0 UV-I 183 W/m 7,7 km/h (2 Bft)
09.12.2013 14:28 9,4 C 8,3 C 84 % 1029,1 hPa 0,0 l/m 2 min 0 min 0,0 UV-I 179 W/m 15,4 km/h (3 Bft)
09.12.2013 14:30 9,4 C 8,3 C 85 % 1029,2 hPa 0,0 l/m 2 min 0 min 0,0 UV-I 186 W/m 7,7 km/h (2 Bft)
09.12.2013 14:32 9,4 C 8,3 C 85 % 1029,1 hPa 0,0 l/m 2 min 0 min 0,0 UV-I 186 W/m 10,3 km/h (2 Bft)
09.12.2013 14:34 9,5 C 8,3 C 85 % 1029,2 hPa 0,0 l/m 2 min 0 min 0,0 UV-I 155 W/m 0,0 km/h (0 Bft)
09.12.2013 14:36 9,5 C 8,3 C 85 % 1029,2 hPa 0,0 l/m 2 min 0 min 0,0 UV-I 123 W/m 7,7 km/h (2 Bft)
09.12.2013 14:38 9,5 C 8,3 C 84 % 1029,2 hPa 0,0 l/m 2 min 0 min 0,0 UV-I 111 W/m 10,3 km/h (2 Bft)
09.12.2013 14:40 9,4 C 8,3 C 84 % 1029,1 hPa 0,0 l/m 0 min 0 min 0,0 UV-I 97 W/m 7,7 km/h (2 Bft)
09.12.2013 14:42 9,3 C 7,8 C 84 % 1029,3 hPa 0,0 l/m 0 min 0 min 0,0 UV-I 90 W/m 10,3 km/h (2 Bft)
09.12.2013 14:44 9,3 C 7,8 C 85 % 1029,3 hPa 0,0 l/m 0 min 0 min 0,0 UV-I 86 W/m 7,7 km/h (2 Bft)
09.12.2013 14:46 9,2 C 7,8 C 85 % 1029,3 hPa 0,0 l/m 0 min 0 min 0,0 UV-I 83 W/m 10,3 km/h (2 Bft)
09.12.2013 14:48 9,2 C 7,8 C 85 % 1029,3 hPa 0,0 l/m 0 min 0 min 0,0 UV-I 91 W/m 10,3 km/h (2 Bft)
09.12.2013 14:50 9,2 C 7,8 C 85 % 1029,3 hPa 0,0 l/m 0 min 0 min 0,0 UV-I 83 W/m 2,6 km/h (1 Bft)
09.12.2013 14:52 9,1 C 7,8 C 85 % 1029,3 hPa 0,0 l/m 0 min 0 min 0,0 UV-I 77 W/m 0,0 km/h (0 Bft)
09.12.2013 14:54 9,1 C 7,8 C 85 % 1029,3 hPa 0,0 l/m 0 min 0 min 0,0 UV-I 76 W/m 7,7 km/h (2 Bft)
09.12.2013 14:56 9,1 C 7,8 C 85 % 1029,4 hPa 0,0 l/m 0 min 0 min 0,0 UV-I 79 W/m 7,7 km/h (2 Bft)
09.12.2013 14:58 9,1 C 7,8 C 85 % 1029,3 hPa 0,0 l/m 0 min 0 min 0,0 UV-I 77 W/m 12,9 km/h (3 Bft)
09.12.2013 15:00 9,1 C 7,8 C 85 % 1029,4 hPa 0,0 l/m 0 min 0 min 0,0 UV-I 76 W/m 2,6 km/h (1 Bft)
09.12.2013 15:02 9,1 C 7,8 C 85 % 1029,4 hPa 0,0 l/m 0 min 0 min 0,0 UV-I 69 W/m 0,0 km/h (0 Bft)
09.12.2013 15:04 9,1 C 7,8 C 86 % 1029,5 hPa 0,0 l/m 0 min 0 min 0,0 UV-I 60 W/m 10,3 km/h (2 Bft)
09.12.2013 15:06 9,1 C 7,8 C 85 % 1029,4 hPa 0,0 l/m 0 min 0 min 0,0 UV-I 56 W/m 5,1 km/h (1 Bft)
09.12.2013 15:08 9,1 C 7,8 C 86 % 1029,4 hPa 0,0 l/m 0 min 0 min 0,0 UV-I 51 W/m 5,1 km/h (1 Bft)
09.12.2013 15:10 9,1 C 7,8 C 86 % 1029,4 hPa 0,0 l/m 0 min 0 min 0,0 UV-I 51 W/m 12,9 km/h (3 Bft)
09.12.2013 15:12 9,1 C 7,8 C 86 % 1029,4 hPa 0,0 l/m 0 min 0 min 0,0 UV-I 51 W/m 5,1 km/h (1 Bft)
09.12.2013 15:14 9,1 C 7,8 C 86 % 1029,4 hPa 0,0 l/m 0 min 0 min 0,0 UV-I 51 W/m 10,3 km/h (2 Bft)
09.12.2013 15:16 9,1 C 7,8 C 86 % 1029,4 hPa 0,0 l/m 0 min 0 min 0,0 UV-I 53 W/m 7,7 km/h (2 Bft)
09.12.2013 15:18 9,1 C 7,8 C 86 % 1029,4 hPa 0,0 l/m 0 min 0 min 0,0 UV-I 53 W/m 2,6 km/h (1 Bft)
09.12.2013 15:20 9,1 C 7,8 C 86 % 1029,4 hPa 0,0 l/m 0 min 0 min 0,0 UV-I 53 W/m 7,7 km/h (2 Bft)
09.12.2013 15:22 9,1 C 7,8 C 86 % 1029,4 hPa 0,0 l/m 0 min 0 min 0,0 UV-I 51 W/m 2,6 km/h (1 Bft)
09.12.2013 15:24 9,1 C 7,8 C 86 % 1029,4 hPa 0,0 l/m 0 min 0 min 0,0 UV-I 51 W/m 7,7 km/h (2 Bft)
09.12.2013 15:26 9,1 C 7,8 C 86 % 1029,4 hPa 0,0 l/m 0 min 0 min 0,0 UV-I 51 W/m 5,1 km/h (1 Bft)
09.12.2013 15:28 9,1 C 7,8 C 86 % 1029,4 hPa 0,0 l/m 0 min 0 min 0,0 UV-I 49 W/m 7,7 km/h (2 Bft)
09.12.2013 15:30 9,1 C 7,8 C 86 % 1029,4 hPa 0,0 l/m 0 min 0 min 0,0 UV-I 47 W/m 5,1 km/h (1 Bft)
09.12.2013 15:32 9,1 C 7,8 C 86 % 1029,4 hPa 0,0 l/m 0 min 0 min 0,0 UV-I 46 W/m 0,0 km/h (0 Bft)
09.12.2013 15:34 9,1 C 7,8 C 86 % 1029,4 hPa 0,0 l/m 0 min 0 min 0,0 UV-I 44 W/m 0,0 km/h (0 Bft)
09.12.2013 15:36 9,1 C 7,8 C 86 % 1029,5 hPa 0,0 l/m 0 min 0 min 0,0 UV-I 40 W/m 7,7 km/h (2 Bft)
09.12.2013 15:38 9,1 C 7,8 C 86 % 1029,5 hPa 0,0 l/m 0 min 0 min 0,0 UV-I 40 W/m 2,6 km/h (1 Bft)
09.12.2013 15:40 9,1 C 7,8 C 86 % 1029,6 hPa 0,0 l/m 0 min 0 min 0,0 UV-I 40 W/m 5,1 km/h (1 Bft)
09.12.2013 15:42 9,1 C 7,8 C 86 % 1029,6 hPa 0,0 l/m 2 min 0 min 0,0 UV-I 44 W/m 7,7 km/h (2 Bft)
09.12.2013 15:44 9,1 C 7,8 C 86 % 1029,6 hPa 0,0 l/m 2 min 0 min 0,0 UV-I 42 W/m 0,0 km/h (0 Bft)
09.12.2013 15:46 9,1 C 7,8 C 86 % 1029,6 hPa 0,0 l/m 2 min 0 min 0,0 UV-I 40 W/m 2,6 km/h (1 Bft)
09.12.2013 15:48 9,1 C 7,8 C 86 % 1029,6 hPa 0,0 l/m 0 min 0 min 0,0 UV-I 33 W/m 0,0 km/h (0 Bft)
09.12.2013 15:50 9,0 C 7,8 C 86 % 1029,6 hPa 0,0 l/m 0 min 0 min 0,0 UV-I 28 W/m 0,0 km/h (0 Bft)
09.12.2013 15:52 9,0 C 7,8 C 86 % 1029,5 hPa 0,0 l/m 0 min 0 min 0,0 UV-I 25 W/m 0,0 km/h (0 Bft)
09.12.2013 15:54 9,0 C 7,8 C 86 % 1029,6 hPa 0,0 l/m 0 min 0 min 0,0 UV-I 23 W/m 5,1 km/h (1 Bft)
09.12.2013 15:56 8,9 C 7,2 C 87 % 1029,6 hPa 0,0 l/m 0 min 0 min 0,0 UV-I 21 W/m 0,0 km/h (0 Bft)
09.12.2013 15:58 8,9 C 7,2 C 87 % 1029,6 hPa 0,0 l/m 0 min 0 min 0,0 UV-I 21 W/m 0,0 km/h (0 Bft)
09.12.2013 16:00 8,9 C 7,2 C 87 % 1029,6 hPa 0,0 l/m 0 min 0 min 0,0 UV-I 21 W/m 0,0 km/h (0 Bft)
09.12.2013 16:02 8,8 C 7,2 C 87 % 1029,7 hPa 0,0 l/m 0 min 0 min 0,0 UV-I 19 W/m 0,0 km/h (0 Bft)
09.12.2013 16:04 8,8 C 7,2 C 87 % 1029,7 hPa 0,0 l/m 0 min 0 min 0,0 UV-I 19 W/m 0,0 km/h (0 Bft)
09.12.2013 16:06 8,7 C 7,2 C 87 % 1029,9 hPa 0,0 l/m 0 min 0 min 0,0 UV-I 18 W/m 0,0 km/h (0 Bft)
09.12.2013 16:08 8,7 C 7,2 C 87 % 1029,9 hPa 0,0 l/m 0 min 0 min 0,0 UV-I 16 W/m 0,0 km/h (0 Bft)
09.12.2013 16:10 8,7 C 7,2 C 88 % 1029,9 hPa 0,0 l/m 0 min 0 min 0,0 UV-I 14 W/m 5,1 km/h (1 Bft)
09.12.2013 16:12 8,7 C 7,2 C 88 % 1029,9 hPa 0,0 l/m 0 min 0 min 0,0 UV-I 12 W/m 0,0 km/h (0 Bft)
09.12.2013 16:14 8,7 C 7,2 C 88 % 1029,8 hPa 0,0 l/m 0 min 0 min 0,0 UV-I 11 W/m 0,0 km/h (0 Bft)
09.12.2013 16:16 8,6 C 7,2 C 88 % 1029,9 hPa 0,0 l/m 0 min 0 min 0,0 UV-I 9 W/m 0,0 km/h (0 Bft)
09.12.2013 16:18 8,6 C 7,2 C 88 % 1029,9 hPa 0,0 l/m 0 min 0 min 0,0 UV-I 7 W/m 0,0 km/h (0 Bft)
09.12.2013 16:20 8,6 C 6,7 C 88 % 1029,9 hPa 0,0 l/m 0 min 0 min 0,0 UV-I 5 W/m 0,0 km/h (0 Bft)
09.12.2013 16:22 8,5 C 6,7 C 88 % 1029,9 hPa 0,0 l/m 0 min 0 min 0,0 UV-I 5 W/m 0,0 km/h (0 Bft)
09.12.2013 16:24 8,5 C 6,7 C 88 % 1029,9 hPa 0,0 l/m 0 min 0 min 0,0 UV-I 0 W/m 0,0 km/h (0 Bft)
09.12.2013 16:26 8,5 C 6,7 C 88 % 1030,0 hPa 0,0 l/m 0 min 0 min 0,0 UV-I 0 W/m 0,0 km/h (0 Bft)
09.12.2013 16:28 8,4 C 6,7 C 88 % 1030,0 hPa 0,0 l/m 0 min 0 min 0,0 UV-I 0 W/m 0,0 km/h (0 Bft)
09.12.2013 16:30 8,4 C 6,7 C 88 % 1030,0 hPa 0,0 l/m 0 min 0 min 0,0 UV-I 0 W/m 0,0 km/h (0 Bft)
09.12.2013 16:32 8,4 C 6,7 C 88 % 1030,0 hPa 0,0 l/m 0 min 0 min 0,0 UV-I 0 W/m 0,0 km/h (0 Bft)
09.12.2013 16:34 8,4 C 6,7 C 88 % 1030,0 hPa 0,0 l/m 0 min 0 min 0,0 UV-I 0 W/m 0,0 km/h (0 Bft)
09.12.2013 16:36 8,4 C 6,7 C 88 % 1030,1 hPa 0,0 l/m 0 min 0 min 0,0 UV-I 0 W/m 0,0 km/h (0 Bft)
09.12.2013 16:38 8,4 C 6,7 C 89 % 1030,1 hPa 0,0 l/m 0 min 0 min 0,0 UV-I 0 W/m 0,0 km/h (0 Bft)
09.12.2013 16:40 8,4 C 6,7 C 89 % 1030,1 hPa 0,0 l/m 0 min 0 min 0,0 UV-I 0 W/m 0,0 km/h (0 Bft)
09.12.2013 16:42 8,4 C 6,7 C 89 % 1030,1 hPa 0,0 l/m 0 min 0 min 0,0 UV-I 0 W/m 0,0 km/h (0 Bft)
09.12.2013 16:44 8,4 C 6,7 C 89 % 1030,1 hPa 0,0 l/m 0 min 0 min 0,0 UV-I 0 W/m 0,0 km/h (0 Bft)
09.12.2013 16:46 8,4 C 6,7 C 89 % 1030,1 hPa 0,0 l/m 0 min 0 min 0,0 UV-I 0 W/m 0,0 km/h (0 Bft)
09.12.2013 16:48 8,4 C 6,7 C 89 % 1030,1 hPa 0,0 l/m 0 min 0 min 0,0 UV-I 0 W/m 0,0 km/h (0 Bft)
09.12.2013 16:50 8,3 C 6,7 C 89 % 1030,0 hPa 0,0 l/m 0 min 0 min 0,0 UV-I 0 W/m 0,0 km/h (0 Bft)
09.12.2013 16:52 8,3 C 6,7 C 89 % 1030,1 hPa 0,0 l/m 0 min 0 min 0,0 UV-I 0 W/m 0,0 km/h (0 Bft)
09.12.2013 16:54 8,3 C 6,7 C 89 % 1030,1 hPa 0,0 l/m 0 min 0 min 0,0 UV-I 0 W/m 0,0 km/h (0 Bft)
09.12.2013 16:56 8,3 C 6,7 C 89 % 1030,2 hPa 0,0 l/m 0 min 0 min 0,0 UV-I 0 W/m 0,0 km/h (0 Bft)
09.12.2013 16:58 8,3 C 6,7 C 89 % 1030,2 hPa 0,0 l/m 0 min 0 min 0,0 UV-I 0 W/m 0,0 km/h (0 Bft)
09.12.2013 17:00 8,3 C 6,7 C 89 % 1030,2 hPa 0,0 l/m 0 min 0 min 0,0 UV-I 0 W/m 0,0 km/h (0 Bft)
09.12.2013 17:02 8,3 C 6,7 C 89 % 1030,1 hPa 0,0 l/m 0 min 0 min 0,0 UV-I 0 W/m 0,0 km/h (0 Bft)
09.12.2013 17:04 8,3 C 6,7 C 89 % 1030,1 hPa 0,0 l/m 0 min 0 min 0,0 UV-I 0 W/m 0,0 km/h (0 Bft)
09.12.2013 17:06 8,2 C 6,7 C 89 % 1030,1 hPa 0,0 l/m 0 min 0 min 0,0 UV-I 0 W/m 0,0 km/h (0 Bft)
09.12.2013 17:08 8,2 C 6,7 C 89 % 1030,2 hPa 0,0 l/m 0 min 0 min 0,0 UV-I 0 W/m 0,0 km/h (0 Bft)
09.12.2013 17:10 8,2 C 6,7 C 89 % 1030,1 hPa 0,0 l/m 0 min 0 min 0,0 UV-I 0 W/m 0,0 km/h (0 Bft)
09.12.2013 17:12 8,2 C 6,7 C 89 % 1030,1 hPa 0,0 l/m 0 min 0 min 0,0 UV-I 0 W/m 0,0 km/h (0 Bft)
09.12.2013 17:14 8,2 C 6,7 C 89 % 1030,2 hPa 0,0 l/m 0 min 0 min 0,0 UV-I 0 W/m 0,0 km/h (0 Bft)
09.12.2013 17:16 8,2 C 6,7 C 89 % 1030,2 hPa 0,0 l/m 0 min 0 min 0,0 UV-I 0 W/m 0,0 km/h (0 Bft)
09.12.2013 17:18 8,2 C 6,7 C 89 % 1030,2 hPa 0,0 l/m 0 min 0 min 0,0 UV-I 0 W/m 0,0 km/h (0 Bft)
09.12.2013 17:20 8,2 C 6,7 C 89 % 1030,2 hPa 0,0 l/m 0 min 0 min 0,0 UV-I 0 W/m 0,0 km/h (0 Bft)
09.12.2013 17:22 8,2 C 6,7 C 93 % 1030,2 hPa 0,0 l/m 0 min 0 min 0,0 UV-I 0 W/m 0,0 km/h (0 Bft)
09.12.2013 17:24 8,2 C 6,7 C 93 % 1030,2 hPa 0,0 l/m 0 min 0 min 0,0 UV-I 0 W/m 0,0 km/h (0 Bft)
09.12.2013 17:26 8,2 C 6,7 C 89 % 1030,2 hPa 0,0 l/m 0 min 0 min 0,0 UV-I 0 W/m 0,0 km/h (0 Bft)
09.12.2013 17:28 8,2 C 6,7 C 93 % 1030,3 hPa 0,0 l/m 0 min 0 min 0,0 UV-I 0 W/m 0,0 km/h (0 Bft)
09.12.2013 17:30 8,2 C 6,7 C 89 % 1030,3 hPa 0,0 l/m 0 min 0 min 0,0 UV-I 0 W/m 0,0 km/h (0 Bft)
09.12.2013 17:32 8,2 C 6,7 C 89 % 1030,3 hPa 0,0 l/m 0 min 0 min 0,0 UV-I 0 W/m 0,0 km/h (0 Bft)
09.12.2013 17:34 8,1 C 6,7 C 89 % 1030,3 hPa 0,0 l/m 0 min 0 min 0,0 UV-I 0 W/m 0,0 km/h (0 Bft)
09.12.2013 17:36 8,1 C 6,7 C 89 % 1030,3 hPa 0,0 l/m 0 min 0 min 0,0 UV-I 0 W/m 0,0 km/h (0 Bft)
09.12.2013 17:38 8,1 C 6,7 C 90 % 1030,3 hPa 0,0 l/m 0 min 0 min 0,0 UV-I 0 W/m 0,0 km/h (0 Bft)
09.12.2013 17:40 8,1 C 6,7 C 90 % 1030,2 hPa 0,0 l/m 0 min 0 min 0,0 UV-I 0 W/m 0,0 km/h (0 Bft)
09.12.2013 17:42 8,1 C 6,7 C 90 % 1030,3 hPa 0,0 l/m 0 min 0 min 0,0 UV-I 0 W/m 0,0 km/h (0 Bft)
09.12.2013 17:44 8,1 C 6,7 C 90 % 1030,3 hPa 0,0 l/m 0 min 0 min 0,0 UV-I 0 W/m 0,0 km/h (0 Bft)
09.12.2013 17:46 8,1 C 6,7 C 90 % 1030,4 hPa 0,0 l/m 0 min 0 min 0,0 UV-I 0 W/m 0,0 km/h (0 Bft)
09.12.2013 17:48 8,1 C 6,7 C 90 % 1030,3 hPa 0,0 l/m 0 min 0 min 0,0 UV-I 0 W/m 0,0 km/h (0 Bft)
09.12.2013 17:50 8,1 C 6,7 C 90 % 1030,3 hPa 0,0 l/m 0 min 0 min 0,0 UV-I 0 W/m 0,0 km/h (0 Bft)
09.12.2013 17:52 8,1 C 6,7 C 90 % 1030,3 hPa 0,0 l/m 0 min 0 min 0,0 UV-I 0 W/m 0,0 km/h (0 Bft)
09.12.2013 17:54 8,1 C 6,7 C 90 % 1030,3 hPa 0,0 l/m 0 min 0 min 0,0 UV-I 0 W/m 0,0 km/h (0 Bft)
09.12.2013 17:56 8,1 C 6,7 C 90 % 1030,4 hPa 0,0 l/m 0 min 0 min 0,0 UV-I 0 W/m 0,0 km/h (0 Bft)
09.12.2013 17:58 8,1 C 6,7 C 90 % 1030,5 hPa 0,0 l/m 0 min 0 min 0,0 UV-I 0 W/m 0,0 km/h (0 Bft)
09.12.2013 18:00 8,1 C 6,7 C 90 % 1030,5 hPa 0,0 l/m 0 min 0 min 0,0 UV-I 0 W/m 0,0 km/h (0 Bft)
09.12.2013 18:02 8,1 C 6,7 C 90 % 1030,6 hPa 0,0 l/m 0 min 0 min 0,0 UV-I 0 W/m 0,0 km/h (0 Bft)
09.12.2013 18:04 8,1 C 6,7 C 90 % 1030,5 hPa 0,0 l/m 0 min 0 min 0,0 UV-I 0 W/m 0,0 km/h (0 Bft)
09.12.2013 18:06 8,1 C 6,7 C 90 % 1030,4 hPa 0,0 l/m 0 min 0 min 0,0 UV-I 0 W/m 0,0 km/h (0 Bft)
09.12.2013 18:08 8,1 C 6,7 C 90 % 1030,6 hPa 0,0 l/m 0 min 0 min 0,0 UV-I 0 W/m 0,0 km/h (0 Bft)
09.12.2013 18:10 8,1 C 6,7 C 90 % 1030,6 hPa 0,0 l/m 0 min 0 min 0,0 UV-I 0 W/m 0,0 km/h (0 Bft)
09.12.2013 18:12 8,1 C 6,7 C 90 % 1030,6 hPa 0,0 l/m 0 min 0 min 0,0 UV-I 0 W/m 0,0 km/h (0 Bft)
09.12.2013 18:14 8,1 C 6,7 C 90 % 1030,6 hPa 0,0 l/m 0 min 0 min 0,0 UV-I 0 W/m 7,7 km/h (2 Bft)
09.12.2013 18:16 8,1 C 6,7 C 90 % 1030,6 hPa 0,0 l/m 0 min 0 min 0,0 UV-I 0 W/m 5,1 km/h (1 Bft)
09.12.2013 18:18 8,1 C 6,7 C 90 % 1030,6 hPa 0,0 l/m 0 min 0 min 0,0 UV-I 0 W/m 0,0 km/h (0 Bft)
09.12.2013 18:20 8,1 C 6,7 C 90 % 1030,7 hPa 0,0 l/m 0 min 0 min 0,0 UV-I 0 W/m 0,0 km/h (0 Bft)
09.12.2013 18:22 8,1 C 6,7 C 90 % 1030,7 hPa 0,0 l/m 0 min 0 min 0,0 UV-I 0 W/m 5,1 km/h (1 Bft)
09.12.2013 18:24 8,1 C 6,7 C 90 % 1030,7 hPa 0,0 l/m 0 min 0 min 0,0 UV-I 0 W/m 2,6 km/h (1 Bft)
09.12.2013 18:26 8,1 C 6,7 C 90 % 1030,7 hPa 0,0 l/m 0 min 0 min 0,0 UV-I 0 W/m 0,0 km/h (0 Bft)
09.12.2013 18:28 8,1 C 6,7 C 90 % 1030,7 hPa 0,0 l/m 0 min 0 min 0,0 UV-I 0 W/m 0,0 km/h (0 Bft)
09.12.2013 18:30 8,1 C 6,7 C 90 % 1030,7 hPa 0,0 l/m 0 min 0 min 0,0 UV-I 0 W/m 0,0 km/h (0 Bft)
09.12.2013 18:32 8,1 C 6,7 C 90 % 1030,7 hPa 0,0 l/m 0 min 0 min 0,0 UV-I 0 W/m 0,0 km/h (0 Bft)
09.12.2013 18:34 8,1 C 6,7 C 90 % 1030,7 hPa 0,0 l/m 0 min 0 min 0,0 UV-I 0 W/m 0,0 km/h (0 Bft)
09.12.2013 18:36 8,1 C 6,7 C 90 % 1030,7 hPa 0,0 l/m 0 min 0 min 0,0 UV-I 0 W/m 0,0 km/h (0 Bft)
09.12.2013 18:38 8,1 C 6,7 C 90 % 1030,8 hPa 0,0 l/m 0 min 0 min 0,0 UV-I 0 W/m 0,0 km/h (0 Bft)
09.12.2013 18:40 8,1 C 6,7 C 90 % 1030,8 hPa 0,0 l/m 0 min 0 min 0,0 UV-I 0 W/m 5,1 km/h (1 Bft)
09.12.2013 18:42 8,1 C 6,7 C 90 % 1030,8 hPa 0,0 l/m 0 min 0 min 0,0 UV-I 0 W/m 0,0 km/h (0 Bft)
09.12.2013 18:44 8,1 C 6,7 C 90 % 1030,8 hPa 0,0 l/m 0 min 0 min 0,0 UV-I 0 W/m 2,6 km/h (1 Bft)
09.12.2013 18:46 8,1 C 6,7 C 90 % 1030,9 hPa 0,0 l/m 0 min 0 min 0,0 UV-I 0 W/m 7,7 km/h (2 Bft)
09.12.2013 18:48 8,1 C 6,7 C 90 % 1030,9 hPa 0,0 l/m 0 min 0 min 0,0 UV-I 0 W/m 7,7 km/h (2 Bft)
09.12.2013 18:50 8,1 C 6,7 C 90 % 1030,9 hPa 0,0 l/m 0 min 0 min 0,0 UV-I 0 W/m 0,0 km/h (0 Bft)
09.12.2013 18:52 8,1 C 6,7 C 90 % 1030,9 hPa 0,0 l/m 0 min 0 min 0,0 UV-I 0 W/m 5,1 km/h (1 Bft)
09.12.2013 18:54 8,1 C 6,7 C 90 % 1030,9 hPa 0,0 l/m 0 min 0 min 0,0 UV-I 0 W/m 5,1 km/h (1 Bft)
09.12.2013 18:56 8,1 C 6,7 C 90 % 1030,9 hPa 0,0 l/m 0 min 0 min 0,0 UV-I 0 W/m 2,6 km/h (1 Bft)
09.12.2013 18:58 8,1 C 6,7 C 90 % 1030,9 hPa 0,0 l/m 0 min 0 min 0,0 UV-I 0 W/m 0,0 km/h (0 Bft)
09.12.2013 19:00 8,1 C 6,7 C 90 % 1030,9 hPa 0,0 l/m 0 min 0 min 0,0 UV-I 0 W/m 2,6 km/h (1 Bft)
09.12.2013 19:02 8,1 C 6,7 C 90 % 1031,0 hPa 0,0 l/m 0 min 0 min 0,0 UV-I 0 W/m 0,0 km/h (0 Bft)
09.12.2013 19:04 8,1 C 6,7 C 90 % 1031,1 hPa 0,0 l/m 0 min 0 min 0,0 UV-I 0 W/m 2,6 km/h (1 Bft)
09.12.2013 19:06 8,1 C 6,7 C 90 % 1031,1 hPa 0,0 l/m 0 min 0 min 0,0 UV-I 0 W/m 2,6 km/h (1 Bft)
09.12.2013 19:08 8,1 C 6,7 C 90 % 1031,1 hPa 0,0 l/m 0 min 0 min 0,0 UV-I 0 W/m 5,1 km/h (1 Bft)
09.12.2013 19:10 8,1 C 6,7 C 90 % 1031,1 hPa 0,0 l/m 0 min 0 min 0,0 UV-I 0 W/m 7,7 km/h (2 Bft)
09.12.2013 19:12 8,1 C 6,7 C 90 % 1031,0 hPa 0,0 l/m 0 min 0 min 0,0 UV-I 0 W/m 0,0 km/h (0 Bft)
09.12.2013 19:14 8,1 C 6,7 C 90 % 1031,0 hPa 0,0 l/m 0 min 0 min 0,0 UV-I 0 W/m 5,1 km/h (1 Bft)
09.12.2013 19:16 8,1 C 6,7 C 90 % 1031,0 hPa 0,0 l/m 0 min 0 min 0,0 UV-I 0 W/m 0,0 km/h (0 Bft)
09.12.2013 19:18 8,1 C 6,7 C 90 % 1031,1 hPa 0,0 l/m 0 min 0 min 0,0 UV-I 0 W/m 2,6 km/h (1 Bft)
09.12.2013 19:20 8,1 C 6,7 C 90 % 1031,1 hPa 0,0 l/m 0 min 0 min 0,0 UV-I 0 W/m 7,7 km/h (2 Bft)
09.12.2013 19:22 8,1 C 6,7 C 90 % 1031,1 hPa 0,0 l/m 0 min 0 min 0,0 UV-I 0 W/m 7,7 km/h (2 Bft)
09.12.2013 19:24 8,1 C 6,7 C 90 % 1031,1 hPa 0,0 l/m 0 min 0 min 0,0 UV-I 0 W/m 7,7 km/h (2 Bft)
09.12.2013 19:26 8,1 C 6,7 C 90 % 1031,1 hPa 0,0 l/m 0 min 0 min 0,0 UV-I 0 W/m 0,0 km/h (0 Bft)
09.12.2013 19:28 8,1 C 6,7 C 90 % 1031,2 hPa 0,0 l/m 0 min 0 min 0,0 UV-I 0 W/m 5,1 km/h (1 Bft)
09.12.2013 19:30 8,1 C 6,7 C 90 % 1031,2 hPa 0,0 l/m 0 min 0 min 0,0 UV-I 0 W/m 5,1 km/h (1 Bft)
09.12.2013 19:32 8,0 C 6,7 C 90 % 1031,2 hPa 0,0 l/m 0 min 0 min 0,0 UV-I 0 W/m 0,0 km/h (0 Bft)
09.12.2013 19:34 8,0 C 6,7 C 90 % 1031,3 hPa 0,0 l/m 0 min 0 min 0,0 UV-I 0 W/m 0,0 km/h (0 Bft)
09.12.2013 19:36 8,0 C 6,7 C 90 % 1031,4 hPa 0,0 l/m 0 min 0 min 0,0 UV-I 0 W/m 2,6 km/h (1 Bft)
09.12.2013 19:38 8,0 C 6,7 C 90 % 1031,4 hPa 0,0 l/m 0 min 0 min 0,0 UV-I 0 W/m 15,4 km/h (3 Bft)
09.12.2013 19:40 8,0 C 6,7 C 90 % 1031,4 hPa 0,0 l/m 0 min 0 min 0,0 UV-I 0 W/m 7,7 km/h (2 Bft)
09.12.2013 19:42 8,0 C 6,7 C 90 % 1031,4 hPa 0,0 l/m 0 min 0 min 0,0 UV-I 0 W/m 10,3 km/h (2 Bft)
09.12.2013 19:44 7,9 C 6,7 C 90 % 1031,4 hPa 0,0 l/m 0 min 0 min 0,0 UV-I 0 W/m 0,0 km/h (0 Bft)
09.12.2013 19:46 7,9 C 6,7 C 90 % 1031,5 hPa 0,0 l/m 0 min 0 min 0,0 UV-I 0 W/m 5,1 km/h (1 Bft)
09.12.2013 19:48 7,9 C 6,7 C 90 % 1031,4 hPa 0,0 l/m 0 min 0 min 0,0 UV-I 0 W/m 2,6 km/h (1 Bft)
09.12.2013 19:50 7,9 C 6,7 C 90 % 1031,4 hPa 0,0 l/m 0 min 0 min 0,0 UV-I 0 W/m 5,1 km/h (1 Bft)
09.12.2013 19:52 7,9 C 6,7 C 90 % 1031,5 hPa 0,0 l/m 0 min 0 min 0,0 UV-I 0 W/m 5,1 km/h (1 Bft)
09.12.2013 19:54 7,9 C 6,7 C 90 % 1031,5 hPa 0,0 l/m 0 min 0 min 0,0 UV-I 0 W/m 2,6 km/h (1 Bft)
09.12.2013 19:56 7,9 C 6,7 C 90 % 1031,5 hPa 0,0 l/m 0 min 0 min 0,0 UV-I 0 W/m 0,0 km/h (0 Bft)
09.12.2013 19:58 7,8 C 6,7 C 90 % 1031,5 hPa 0,0 l/m 0 min 0 min 0,0 UV-I 0 W/m 0,0 km/h (0 Bft)
09.12.2013 20:00 7,8 C 6,7 C 90 % 1031,6 hPa 0,0 l/m 0 min 0 min 0,0 UV-I 0 W/m 0,0 km/h (0 Bft)
09.12.2013 20:02 7,8 C 6,7 C 90 % 1031,5 hPa 0,0 l/m 0 min 0 min 0,0 UV-I 0 W/m 0,0 km/h (0 Bft)
09.12.2013 20:04 7,8 C 6,7 C 90 % 1031,6 hPa 0,0 l/m 0 min 0 min 0,0 UV-I 0 W/m 5,1 km/h (1 Bft)
09.12.2013 20:06 7,8 C 6,7 C 90 % 1031,6 hPa 0,0 l/m 0 min 0 min 0,0 UV-I 0 W/m 7,7 km/h (2 Bft)
09.12.2013 20:08 7,8 C 6,7 C 90 % 1031,6 hPa 0,0 l/m 0 min 0 min 0,0 UV-I 0 W/m 2,6 km/h (1 Bft)
09.12.2013 20:10 7,7 C 6,7 C 90 % 1031,6 hPa 0,0 l/m 0 min 0 min 0,0 UV-I 0 W/m 0,0 km/h (0 Bft)
09.12.2013 20:12 7,7 C 6,7 C 90 % 1031,7 hPa 0,0 l/m 0 min 0 min 0,0 UV-I 0 W/m 0,0 km/h (0 Bft)
09.12.2013 20:14 7,7 C 6,1 C 90 % 1031,7 hPa 0,0 l/m 0 min 0 min 0,0 UV-I 0 W/m 0,0 km/h (0 Bft)
09.12.2013 20:16 7,7 C 6,1 C 90 % 1031,8 hPa 0,0 l/m 0 min 0 min 0,0 UV-I 0 W/m 0,0 km/h (0 Bft)
09.12.2013 20:18 7,7 C 6,1 C 90 % 1031,7 hPa 0,0 l/m 0 min 0 min 0,0 UV-I 0 W/m 10,3 km/h (2 Bft)
09.12.2013 20:20 7,6 C 6,1 C 90 % 1031,7 hPa 0,0 l/m 0 min 0 min 0,0 UV-I 0 W/m 2,6 km/h (1 Bft)
09.12.2013 20:22 7,6 C 6,1 C 90 % 1031,6 hPa 0,0 l/m 0 min 0 min 0,0 UV-I 0 W/m 0,0 km/h (0 Bft)
09.12.2013 20:24 7,6 C 6,1 C 90 % 1031,7 hPa 0,0 l/m 0 min 0 min 0,0 UV-I 0 W/m 0,0 km/h (0 Bft)
09.12.2013 20:26 7,6 C 6,1 C 90 % 1031,7 hPa 0,0 l/m 0 min 0 min 0,0 UV-I 0 W/m 0,0 km/h (0 Bft)
09.12.2013 20:28 7,5 C 6,1 C 90 % 1031,8 hPa 0,0 l/m 0 min 0 min 0,0 UV-I 0 W/m 2,6 km/h (1 Bft)
09.12.2013 20:30 7,4 C 6,1 C 90 % 1031,8 hPa 0,0 l/m 0 min 0 min 0,0 UV-I 0 W/m 0,0 km/h (0 Bft)
09.12.2013 20:32 7,4 C 5,6 C 90 % 1031,7 hPa 0,0 l/m 0 min 0 min 0,0 UV-I 0 W/m 0,0 km/h (0 Bft)
09.12.2013 20:34 7,3 C 5,6 C 91 % 1031,8 hPa 0,0 l/m 0 min 0 min 0,0 UV-I 0 W/m 2,6 km/h (1 Bft)
09.12.2013 20:36 7,3 C 5,6 C 91 % 1031,8 hPa 0,0 l/m 0 min 0 min 0,0 UV-I 0 W/m 7,7 km/h (2 Bft)
09.12.2013 20:38 7,2 C 5,6 C 91 % 1031,9 hPa 0,0 l/m 0 min 0 min 0,0 UV-I 0 W/m 0,0 km/h (0 Bft)
09.12.2013 20:40 7,2 C 5,6 C 91 % 1031,9 hPa 0,0 l/m 0 min 0 min 0,0 UV-I 0 W/m 0,0 km/h (0 Bft)
09.12.2013 20:42 7,1 C 5,6 C 91 % 1031,9 hPa 0,0 l/m 0 min 0 min 0,0 UV-I 0 W/m 0,0 km/h (0 Bft)
09.12.2013 20:44 7,0 C 5,0 C 91 % 1031,9 hPa 0,0 l/m 0 min 0 min 0,0 UV-I 0 W/m 0,0 km/h (0 Bft)
09.12.2013 20:46 6,9 C 5,0 C 95 % 1031,9 hPa 0,0 l/m 0 min 0 min 0,0 UV-I 0 W/m 0,0 km/h (0 Bft)
09.12.2013 20:48 6,9 C 5,0 C 91 % 1031,9 hPa 0,0 l/m 0 min 0 min 0,0 UV-I 0 W/m 5,1 km/h (1 Bft)
09.12.2013 20:50 6,8 C 5,0 C 91 % 1031,9 hPa 0,0 l/m 0 min 0 min 0,0 UV-I 0 W/m 0,0 km/h (0 Bft)
09.12.2013 20:52 6,8 C 5,0 C 91 % 1032,0 hPa 0,0 l/m 0 min 0 min 0,0 UV-I 0 W/m 0,0 km/h (0 Bft)
09.12.2013 20:54 6,7 C 5,0 C 91 % 1032,0 hPa 0,0 l/m 0 min 0 min 0,0 UV-I 0 W/m 0,0 km/h (0 Bft)
09.12.2013 20:56 6,7 C 5,0 C 91 % 1032,0 hPa 0,0 l/m 0 min 0 min 0,0 UV-I 0 W/m 0,0 km/h (0 Bft)
09.12.2013 20:58 6,6 C 4,4 C 91 % 1032,0 hPa 0,0 l/m 0 min 0 min 0,0 UV-I 0 W/m 0,0 km/h (0 Bft)
09.12.2013 21:00 6,6 C 4,4 C 92 % 1031,9 hPa 0,0 l/m 0 min 0 min 0,0 UV-I 0 W/m 0,0 km/h (0 Bft)
09.12.2013 21:02 6,6 C 5,0 C 92 % 1031,9 hPa 0,0 l/m 0 min 0 min 0,0 UV-I 0 W/m 0,0 km/h (0 Bft)
09.12.2013 21:04 6,5 C 5,0 C 92 % 1032,0 hPa 0,0 l/m 0 min 0 min 0,0 UV-I 0 W/m 0,0 km/h (0 Bft)
09.12.2013 21:06 6,4 C 4,4 C 92 % 1032,0 hPa 0,0 l/m 0 min 0 min 0,0 UV-I 0 W/m 0,0 km/h (0 Bft)
09.12.2013 21:08 6,4 C 5,0 C 92 % 1031,9 hPa 0,0 l/m 0 min 0 min 0,0 UV-I 0 W/m 0,0 km/h (0 Bft)
09.12.2013 21:10 6,4 C 4,4 C 92 % 1032,0 hPa 0,0 l/m 0 min 0 min 0,0 UV-I 0 W/m 0,0 km/h (0 Bft)
09.12.2013 21:12 6,4 C 4,4 C 92 % 1032,1 hPa 0,0 l/m 0 min 0 min 0,0 UV-I 0 W/m 0,0 km/h (0 Bft)
09.12.2013 21:14 6,3 C 4,4 C 92 % 1032,0 hPa 0,0 l/m 0 min 0 min 0,0 UV-I 0 W/m 0,0 km/h (0 Bft)
09.12.2013 21:16 6,3 C 4,4 C 92 % 1032,0 hPa 0,0 l/m 0 min 0 min 0,0 UV-I 0 W/m 5,1 km/h (1 Bft)
09.12.2013 21:18 6,3 C 4,4 C 93 % 1032,1 hPa 0,0 l/m 0 min 0 min 0,0 UV-I 0 W/m 0,0 km/h (0 Bft)
09.12.2013 21:20 6,2 C 4,4 C 93 % 1032,1 hPa 0,0 l/m 0 min 0 min 0,0 UV-I 0 W/m 0,0 km/h (0 Bft)
09.12.2013 21:22 6,2 C 4,4 C 93 % 1032,1 hPa 0,0 l/m 0 min 0 min 0,0 UV-I 0 W/m 0,0 km/h (0 Bft)
09.12.2013 21:24 6,2 C 4,4 C 93 % 1032,1 hPa 0,0 l/m 0 min 0 min 0,0 UV-I 0 W/m 0,0 km/h (0 Bft)
09.12.2013 21:26 6,2 C 4,4 C 93 % 1032,1 hPa 0,0 l/m 0 min 0 min 0,0 UV-I 0 W/m 0,0 km/h (0 Bft)
09.12.2013 21:28 6,1 C 4,4 C 93 % 1032,2 hPa 0,0 l/m 0 min 0 min 0,0 UV-I 0 W/m 0,0 km/h (0 Bft)
09.12.2013 21:30 6,1 C 4,4 C 93 % 1032,2 hPa 0,0 l/m 0 min 0 min 0,0 UV-I 0 W/m 0,0 km/h (0 Bft)
09.12.2013 21:32 6,1 C 4,4 C 93 % 1032,2 hPa 0,0 l/m 0 min 0 min 0,0 UV-I 0 W/m 0,0 km/h (0 Bft)
09.12.2013 21:34 6,0 C 4,4 C 93 % 1032,2 hPa 0,0 l/m 0 min 0 min 0,0 UV-I 0 W/m 0,0 km/h (0 Bft)
09.12.2013 21:36 6,0 C 4,4 C 93 % 1032,2 hPa 0,0 l/m 0 min 0 min 0,0 UV-I 0 W/m 0,0 km/h (0 Bft)
09.12.2013 21:38 5,9 C 4,4 C 93 % 1032,2 hPa 0,0 l/m 0 min 0 min 0,0 UV-I 0 W/m 0,0 km/h (0 Bft)
09.12.2013 21:40 5,9 C 4,4 C 93 % 1032,2 hPa 0,0 l/m 0 min 0 min 0,0 UV-I 0 W/m 2,6 km/h (1 Bft)
09.12.2013 21:42 5,9 C 4,4 C 93 % 1032,2 hPa 0,0 l/m 0 min 0 min 0,0 UV-I 0 W/m 0,0 km/h (0 Bft)
09.12.2013 21:44 5,9 C 3,9 C 93 % 1032,2 hPa 0,0 l/m 0 min 0 min 0,0 UV-I 0 W/m 0,0 km/h (0 Bft)
09.12.2013 21:46 5,9 C 4,4 C 93 % 1032,2 hPa 0,0 l/m 0 min 0 min 0,0 UV-I 0 W/m 0,0 km/h (0 Bft)
09.12.2013 21:48 5,9 C 4,4 C 93 % 1032,2 hPa 0,0 l/m 0 min 0 min 0,0 UV-I 0 W/m 0,0 km/h (0 Bft)
09.12.2013 21:50 5,8 C 4,4 C 93 % 1032,2 hPa 0,0 l/m 0 min 0 min 0,0 UV-I 0 W/m 0,0 km/h (0 Bft)
09.12.2013 21:52 5,8 C 4,4 C 93 % 1032,2 hPa 0,0 l/m 0 min 0 min 0,0 UV-I 0 W/m 0,0 km/h (0 Bft)
09.12.2013 21:54 5,8 C 3,9 C 93 % 1032,2 hPa 0,0 l/m 0 min 0 min 0,0 UV-I 0 W/m 0,0 km/h (0 Bft)
09.12.2013 21:56 5,8 C 3,9 C 94 % 1032,3 hPa 0,0 l/m 0 min 0 min 0,0 UV-I 0 W/m 0,0 km/h (0 Bft)
09.12.2013 21:58 5,8 C 3,9 C 94 % 1032,3 hPa 0,0 l/m 0 min 0 min 0,0 UV-I 0 W/m 0,0 km/h (0 Bft)
09.12.2013 22:00 5,8 C 3,9 C 94 % 1032,3 hPa 0,0 l/m 0 min 0 min 0,0 UV-I 0 W/m 0,0 km/h (0 Bft)
09.12.2013 22:02 5,8 C 3,9 C 94 % 1032,2 hPa 0,0 l/m 0 min 0 min 0,0 UV-I 0 W/m 0,0 km/h (0 Bft)
09.12.2013 22:04 5,8 C 3,9 C 94 % 1032,3 hPa 0,0 l/m 0 min 0 min 0,0 UV-I 0 W/m 0,0 km/h (0 Bft)
09.12.2013 22:06 5,7 C 3,9 C 94 % 1032,4 hPa 0,0 l/m 0 min 0 min 0,0 UV-I 0 W/m 0,0 km/h (0 Bft)
09.12.2013 22:08 5,7 C 3,9 C 94 % 1032,4 hPa 0,0 l/m 0 min 0 min 0,0 UV-I 0 W/m 0,0 km/h (0 Bft)
09.12.2013 22:10 5,7 C 3,9 C 94 % 1032,3 hPa 0,0 l/m 0 min 0 min 0,0 UV-I 0 W/m 0,0 km/h (0 Bft)
09.12.2013 22:12 5,7 C 3,9 C 94 % 1032,3 hPa 0,0 l/m 0 min 0 min 0,0 UV-I 0 W/m 0,0 km/h (0 Bft)
09.12.2013 22:14 5,7 C 3,9 C 94 % 1032,3 hPa 0,0 l/m 0 min 0 min 0,0 UV-I 0 W/m 0,0 km/h (0 Bft)
09.12.2013 22:16 5,7 C 3,9 C 94 % 1032,3 hPa 0,0 l/m 0 min 0 min 0,0 UV-I 0 W/m 0,0 km/h (0 Bft)
09.12.2013 22:18 5,7 C 3,9 C 94 % 1032,3 hPa 0,0 l/m 0 min 0 min 0,0 UV-I 0 W/m 0,0 km/h (0 Bft)
09.12.2013 22:20 5,7 C 3,9 C 94 % 1032,3 hPa 0,0 l/m 0 min 0 min 0,0 UV-I 0 W/m 2,6 km/h (1 Bft)
09.12.2013 22:22 5,7 C 3,9 C 94 % 1032,3 hPa 0,0 l/m 0 min 0 min 0,0 UV-I 0 W/m 0,0 km/h (0 Bft)
09.12.2013 22:24 5,6 C 3,9 C 94 % 1032,4 hPa 0,0 l/m 0 min 0 min 0,0 UV-I 0 W/m 2,6 km/h (1 Bft)
09.12.2013 22:26 5,6 C 3,9 C 94 % 1032,3 hPa 0,0 l/m 0 min 0 min 0,0 UV-I 0 W/m 0,0 km/h (0 Bft)
09.12.2013 22:28 5,6 C 3,9 C 94 % 1032,3 hPa 0,0 l/m 0 min 0 min 0,0 UV-I 0 W/m 0,0 km/h (0 Bft)
09.12.2013 22:30 5,6 C 3,9 C 94 % 1032,4 hPa 0,0 l/m 0 min 0 min 0,0 UV-I 0 W/m 0,0 km/h (0 Bft)
09.12.2013 22:32 5,6 C 3,9 C 94 % 1032,4 hPa 0,0 l/m 0 min 0 min 0,0 UV-I 0 W/m 0,0 km/h (0 Bft)
09.12.2013 22:34 5,5 C 3,9 C 94 % 1032,4 hPa 0,0 l/m 0 min 0 min 0,0 UV-I 0 W/m 0,0 km/h (0 Bft)
09.12.2013 22:36 5,5 C 3,9 C 94 % 1032,4 hPa 0,0 l/m 0 min 0 min 0,0 UV-I 0 W/m 0,0 km/h (0 Bft)
09.12.2013 22:38 5,5 C 3,9 C 94 % 1032,4 hPa 0,0 l/m 0 min 0 min 0,0 UV-I 0 W/m 0,0 km/h (0 Bft)
09.12.2013 22:40 5,5 C 3,9 C 94 % 1032,3 hPa 0,0 l/m 0 min 0 min 0,0 UV-I 0 W/m 5,1 km/h (1 Bft)
09.12.2013 22:42 5,4 C 3,9 C 94 % 1032,4 hPa 0,0 l/m 0 min 0 min 0,0 UV-I 0 W/m 0,0 km/h (0 Bft)
09.12.2013 22:44 5,4 C 3,9 C 94 % 1032,4 hPa 0,0 l/m 0 min 0 min 0,0 UV-I 0 W/m 0,0 km/h (0 Bft)
09.12.2013 22:46 5,4 C 3,9 C 94 % 1032,4 hPa 0,0 l/m 0 min 0 min 0,0 UV-I 0 W/m 0,0 km/h (0 Bft)
09.12.2013 22:48 5,4 C 3,9 C 94 % 1032,4 hPa 0,0 l/m 0 min 0 min 0,0 UV-I 0 W/m 0,0 km/h (0 Bft)
09.12.2013 22:50 5,4 C 3,9 C 94 % 1032,5 hPa 0,0 l/m 0 min 0 min 0,0 UV-I 0 W/m 0,0 km/h (0 Bft)
09.12.2013 22:52 5,4 C 3,3 C 94 % 1032,5 hPa 0,0 l/m 0 min 0 min 0,0 UV-I 0 W/m 0,0 km/h (0 Bft)
09.12.2013 22:54 5,3 C 3,3 C 94 % 1032,5 hPa 0,0 l/m 0 min 0 min 0,0 UV-I 0 W/m 0,0 km/h (0 Bft)
09.12.2013 22:56 5,3 C 3,3 C 94 % 1032,5 hPa 0,0 l/m 0 min 0 min 0,0 UV-I 0 W/m 0,0 km/h (0 Bft)
09.12.2013 22:58 5,3 C 3,3 C 94 % 1032,6 hPa 0,0 l/m 0 min 0 min 0,0 UV-I 0 W/m 2,6 km/h (1 Bft)
09.12.2013 23:00 5,3 C 3,3 C 94 % 1032,6 hPa 0,0 l/m 0 min 0 min 0,0 UV-I 0 W/m 0,0 km/h (0 Bft)
09.12.2013 23:02 5,3 C 3,3 C 94 % 1032,7 hPa 0,0 l/m 0 min 0 min 0,0 UV-I 0 W/m 0,0 km/h (0 Bft)
09.12.2013 23:04 5,3 C 3,3 C 94 % 1032,6 hPa 0,0 l/m 0 min 0 min 0,0 UV-I 0 W/m 0,0 km/h (0 Bft)
09.12.2013 23:06 5,2 C 3,3 C 94 % 1032,7 hPa 0,0 l/m 0 min 0 min 0,0 UV-I 0 W/m 0,0 km/h (0 Bft)
09.12.2013 23:08 5,2 C 3,3 C 94 % 1032,6 hPa 0,0 l/m 0 min 0 min 0,0 UV-I 0 W/m 0,0 km/h (0 Bft)
09.12.2013 23:10 5,2 C 3,3 C 94 % 1032,7 hPa 0,0 l/m 0 min 0 min 0,0 UV-I 0 W/m 0,0 km/h (0 Bft)
09.12.2013 23:12 5,2 C 3,3 C 94 % 1032,7 hPa 0,0 l/m 0 min 0 min 0,0 UV-I 0 W/m 0,0 km/h (0 Bft)
09.12.2013 23:14 5,2 C 3,3 C 94 % 1032,7 hPa 0,0 l/m 0 min 0 min 0,0 UV-I 0 W/m 0,0 km/h (0 Bft)
09.12.2013 23:16 5,2 C 3,3 C 94 % 1032,7 hPa 0,0 l/m 0 min 0 min 0,0 UV-I 0 W/m 0,0 km/h (0 Bft)
09.12.2013 23:18 5,2 C 3,3 C 94 % 1032,7 hPa 0,0 l/m 0 min 0 min 0,0 UV-I 0 W/m 0,0 km/h (0 Bft)
09.12.2013 23:20 5,2 C 3,3 C 94 % 1032,7 hPa 0,0 l/m 0 min 0 min 0,0 UV-I 0 W/m 0,0 km/h (0 Bft)
09.12.2013 23:22 5,1 C 3,3 C 94 % 1032,7 hPa 0,0 l/m 0 min 0 min 0,0 UV-I 0 W/m 0,0 km/h (0 Bft)
09.12.2013 23:24 5,1 C 3,3 C 94 % 1032,7 hPa 0,0 l/m 0 min 0 min 0,0 UV-I 0 W/m 0,0 km/h (0 Bft)
09.12.2013 23:26 5,1 C 3,3 C 94 % 1032,7 hPa 0,0 l/m 0 min 0 min 0,0 UV-I 0 W/m 2,6 km/h (1 Bft)
09.12.2013 23:28 5,1 C 3,3 C 94 % 1032,8 hPa 0,0 l/m 0 min 0 min 0,0 UV-I 0 W/m 0,0 km/h (0 Bft)
09.12.2013 23:30 5,1 C 3,9 C 94 % 1032,8 hPa 0,0 l/m 0 min 0 min 0,0 UV-I 0 W/m 0,0 km/h (0 Bft)
09.12.2013 23:32 5,1 C 3,9 C 94 % 1032,8 hPa 0,0 l/m 0 min 0 min 0,0 UV-I 0 W/m 0,0 km/h (0 Bft)
09.12.2013 23:34 5,1 C 3,9 C 94 % 1032,8 hPa 0,0 l/m 0 min 0 min 0,0 UV-I 0 W/m 0,0 km/h (0 Bft)
09.12.2013 23:36 5,1 C 3,9 C 94 % 1032,9 hPa 0,0 l/m 0 min 0 min 0,0 UV-I 0 W/m 0,0 km/h (0 Bft)
09.12.2013 23:38 5,1 C 4,4 C 94 % 1032,9 hPa 0,0 l/m 0 min 0 min 0,0 UV-I 0 W/m 0,0 km/h (0 Bft)
09.12.2013 23:40 5,1 C 4,4 C 94 % 1032,9 hPa 0,0 l/m 0 min 0 min 0,0 UV-I 0 W/m 0,0 km/h (0 Bft)
09.12.2013 23:42 5,2 C 4,4 C 94 % 1032,9 hPa 0,0 l/m 0 min 0 min 0,0 UV-I 0 W/m 0,0 km/h (0 Bft)
09.12.2013 23:44 5,2 C 4,4 C 94 % 1032,9 hPa 0,0 l/m 0 min 0 min 0,0 UV-I 0 W/m 0,0 km/h (0 Bft)
09.12.2013 23:46 5,2 C 4,4 C 94 % 1033,0 hPa 0,0 l/m 0 min 0 min 0,0 UV-I 0 W/m 0,0 km/h (0 Bft)
09.12.2013 23:48 5,2 C 4,4 C 94 % 1033,0 hPa 0,0 l/m 0 min 0 min 0,0 UV-I 0 W/m 0,0 km/h (0 Bft)
09.12.2013 23:50 5,2 C 4,4 C 94 % 1033,1 hPa 0,0 l/m 0 min 0 min 0,0 UV-I 0 W/m 0,0 km/h (0 Bft)
09.12.2013 23:52 5,2 C 4,4 C 95 % 1033,1 hPa 0,0 l/m 0 min 0 min 0,0 UV-I 0 W/m 0,0 km/h (0 Bft)
09.12.2013 23:54 5,2 C 4,4 C 95 % 1033,0 hPa 0,0 l/m 0 min 0 min 0,0 UV-I 0 W/m 0,0 km/h (0 Bft)
09.12.2013 23:56 5,2 C 4,4 C 95 % 1033,0 hPa 0,0 l/m 0 min 0 min 0,0 UV-I 0 W/m 2,6 km/h (1 Bft)
09.12.2013 23:58 5,3 C 4,4 C 95 % 1033,1 hPa 0,0 l/m 0 min 0 min 0,0 UV-I 0 W/m 0,0 km/h (0 Bft)
_ Min-Zeit 23:20 22:52 13:44 04:40 - - - - - 06:02
Minimum _ 5,1 C 3,3 C 84 % 1024,7 hPa - - - - - 0,0 km/h (0 Bft)
_ Max-Zeit 13:46 13:38 20:46 23:50 00:00 11:02 00:00 00:00 13:12 01:22
Maximum _ 9,7 C 8,9 C 95 % 1033,1 hPa 0,0 l/m 2 min 0 min 0,0 UV-I 258 W/m 30,9 km/h
NW (5 Bft)
Durchschnitt _ 7,5 C 6,1 C 89 % 1028,5 hPa #0,0 l/m #2:52 h #0 min. 0,0 UV-I 107 W/m 9,4 km/h (2 Bft)
© 2013 W. Hausmann